| time (UTC) | temp F | wind direction | speed knots | gust knots | rain 1hr in | rain 24hr in | rain mn in | humidity % | barometer mb |
| 20260904133211 | 0 | 0.0 | 0.0 | 0.00 | 0.48 | 0.00 | |||
| 20260904133106 | 0 | 0.0 | 0.0 | 0.00 | 0.48 | 0.00 | 1010.7 | ||
| 20260904132905 | 0 | 0.0 | 0.0 | 0.00 | 0.48 | 0.00 | 1010.7 | ||
| 20260904132730 | 0 | 0.0 | 0.0 | 0.00 | 0.48 | 0.00 | 1010.7 | ||
| 20260904132535 | 0 | 0.0 | 0.0 | 0.00 | 0.48 | 0.00 | 1010.7 | ||
| 20260904132336 | 75 | 175 | 0.0 | 0.0 | 0.00 | 0.48 | 0.00 | 98 | 1010.7 |
| 20260904132204 | 75 | 175 | 0.0 | 0.0 | 0.00 | 0.48 | 0.00 | 98 | 1010.7 |
| 20260904132137 | 75 | 175 | 0.0 | 0.9 | 0.00 | 0.48 | 0.00 | 98 | 1010.7 |
| 20260904131923 | 75 | 175 | 0.0 | 0.9 | 0.00 | 0.48 | 0.00 | 98 | 1010.8 |
| 20260904131723 | 75 | 175 | 0.0 | 0.9 | 0.00 | 0.48 | 0.00 | 98 | 1010.8 |
| 20260904131705 | 75 | 175 | 0.0 | 0.9 | 0.00 | 0.48 | 0.00 | 98 | 1010.9 |
| 20260904131622 | 75 | 175 | 0.0 | 0.9 | 0.00 | 0.48 | 0.00 | 98 | 1010.9 |
| 20260904131422 | 75 | 175 | 0.0 | 0.9 | 0.00 | 0.48 | 0.00 | 98 | 1010.8 |
| 20260904131203 | 75 | 178 | 0.0 | 0.9 | 0.00 | 0.48 | 0.00 | 98 | 1010.8 |
| 20260904131123 | 75 | 141 | 0.0 | 0.0 | 0.00 | 0.48 | 0.00 | 98 | 1010.8 |
| 20260904130923 | 75 | 141 | 0.0 | 0.0 | 0.00 | 0.48 | 0.00 | 98 | 1010.8 |
| 20260904130725 | 75 | 140 | 0.0 | 0.0 | 0.00 | 0.48 | 0.00 | 98 | 1010.7 |
| 20260904130702 | 75 | 141 | 0.0 | 0.0 | 0.00 | 0.48 | 0.00 | 98 | 1010.7 |
| 20260904130523 | 74 | 141 | 0.0 | 0.0 | 0.00 | 0.48 | 0.00 | 98 | 1010.8 |
| 20260904130322 | 0 | 140 | 0.0 | 0.0 | 0.00 | 0.48 | 0.00 | 1010.9 | |
| 20260904130210 | 0 | 141 | 0.0 | 0.0 | 0.00 | 0.48 | 0.00 | 1010.7 | |
| 20260904130202 | 0 | 141 | 0.0 | 0.0 | 0.00 | 0.48 | 0.00 | 1010.9 | |
| 20260904130001 | 0 | 141 | 0.0 | 0.0 | 0.00 | 0.48 | 0.00 | 1010.5 | |
| 20260904125709 | 0 | 0.0 | 0.0 | 0.00 | 0.00 | 0.00 | 1010.7 | ||
| 20260904125331 | 0 | 0.0 | 0.0 | 0.00 | 0.48 | 0.00 | |||
| 20260904125306 | 0 | 0.0 | 0.0 | 0.00 | 0.48 | 0.00 | |||
| 20260904125031 | 0 | 0.0 | 0.0 | 0.00 | 0.48 | 0.00 | |||
| 20260904124805 | 0 | 0.0 | 0.0 | 0.00 | 0.48 | 0.00 | |||
| 20260904124604 | 0 | 0.0 | 0.0 | 0.00 | 0.48 | 0.00 | |||
| 20260904124411 | 0 | 0.0 | 0.0 | 0.00 | 0.48 | 0.00 | |||
| 20260904124233 | 0 | 0.0 | 0.0 | 0.00 | 0.48 | 0.00 | 1010.4 | ||
| 20260904124003 | 0 | 0.0 | 0.0 | 0.00 | 0.48 | 0.00 | 1010.4 | ||
| 20260904123849 | 72 | 127 | 0.0 | 0.0 | 0.00 | 0.48 | 0.00 | 97 | 1010.4 |
| 20260904123746 | 72 | 127 | 0.0 | 0.0 | 0.00 | 0.48 | 0.00 | 97 | 1010.4 |
| 20260904123531 | 72 | 127 | 0.0 | 0.0 | 0.00 | 0.48 | 0.00 | 97 | 1010.4 |
| 20260904123320 | 72 | 127 | 0.0 | 0.0 | 0.00 | 0.48 | 0.00 | 97 | 1010.4 |
| 20260904123230 | 72 | 127 | 0.0 | 0.0 | 0.00 | 0.48 | 0.00 | 97 | 1010.3 |
| 20260904123116 | 72 | 127 | 0.0 | 0.0 | 0.00 | 0.48 | 0.00 | 97 | 1010.4 |
| 20260904122904 | 72 | 127 | 0.0 | 0.0 | 0.00 | 0.48 | 0.00 | 97 | 1010.3 |
| 20260904122800 | 72 | 125 | 0.0 | 0.0 | 0.00 | 0.48 | 0.00 | 97 | 1010.2 |
| 20260904122731 | 72 | 125 | 0.0 | 0.0 | 0.00 | 0.48 | 0.00 | 97 | 1010.3 |
| 20260904122504 | 72 | 125 | 0.0 | 0.0 | 0.00 | 0.48 | 0.00 | 97 | 1010.2 |
| 20260904122404 | 72 | 125 | 0.0 | 0.0 | 0.00 | 0.48 | 0.00 | 97 | 1010.3 |
| 20260904122217 | 72 | 127 | 0.0 | 0.0 | 0.00 | 0.48 | 0.00 | 97 | 1010.3 |
| 20260904122106 | 72 | 127 | 0.0 | 0.0 | 0.00 | 0.48 | 0.00 | 97 | 1010.3 |
| 20260904121905 | 72 | 127 | 0.0 | 0.0 | 0.00 | 0.48 | 0.00 | 97 | 1010.1 |
| 20260904121708 | 72 | 127 | 0.0 | 0.0 | 0.00 | 0.48 | 0.00 | 97 | 1010.2 |
| 20260904121613 | 72 | 125 | 0.0 | 0.0 | 0.00 | 0.48 | 0.00 | 97 | 1010.1 |
| 20260904121518 | 72 | 127 | 0.0 | 0.0 | 0.00 | 0.48 | 0.00 | 97 | 1010.2 |
| 20260904121447 | 72 | 127 | 0.0 | 0.0 | 0.00 | 0.48 | 0.00 | 97 | 1010.2 |
| 20260904121107 | 72 | 127 | 0.0 | 0.0 | 0.00 | 0.48 | 0.00 | 97 | 1010.0 |
| 20260904120902 | 72 | 127 | 0.0 | 0.0 | 0.00 | 0.48 | 0.00 | 97 | 1010.1 |
| 20260904120703 | 72 | 127 | 0.0 | 0.0 | 0.00 | 0.48 | 0.00 | 97 | 1010.0 |
| 20260904120604 | 72 | 127 | 0.0 | 0.0 | 0.00 | 0.48 | 0.00 | 97 | 1010.1 |
| 20260904120440 | 72 | 127 | 0.0 | 0.0 | 0.00 | 0.48 | 0.00 | 97 | 1010.1 |
| 20260904120154 | 72 | 125 | 0.0 | 0.0 | 0.00 | 0.48 | 0.00 | 97 | 1010.1 |
| 20260904115855 | 73 | 127 | 0.0 | 0.0 | 0.00 | 0.48 | 0.00 | 97 | 1010.0 |
| 20260904115708 | 73 | 127 | 0.0 | 0.0 | 0.00 | 0.48 | 0.00 | 97 | 1009.8 |
| 20260904115657 | 73 | 127 | 0.0 | 0.0 | 0.00 | 0.48 | 0.00 | 97 | 1009.8 |
| 20260904115513 | 73 | 127 | 0.0 | 0.0 | 0.00 | 0.48 | 0.00 | 97 | 1009.9 |
| 20260904115502 | 73 | 127 | 0.0 | 0.0 | 0.00 | 0.48 | 0.00 | 97 | 1009.9 |
| 20260904115429 | 73 | 127 | 0.0 | 0.0 | 0.00 | 0.48 | 0.00 | 97 | 1009.9 |
| 20260904115127 | 73 | 127 | 0.0 | 0.0 | 0.00 | 0.48 | 0.00 | 97 | 1010.0 |
| 20260904114834 | 73 | 157 | 0.0 | 0.0 | 0.00 | 0.48 | 0.00 | 97 | 1010.0 |
| 20260904114739 | 73 | 158 | 0.0 | 0.0 | 0.00 | 0.48 | 0.00 | 97 | 1010.0 |
| 20260904114706 | 73 | 158 | 0.0 | 0.0 | 0.00 | 0.48 | 0.00 | 97 | 1010.0 |
| 20260904114426 | 73 | 159 | 0.0 | 0.0 | 0.00 | 0.48 | 0.00 | 97 | 1009.8 |
| 20260904114227 | 73 | 158 | 0.0 | 0.0 | 0.00 | 0.48 | 0.00 | 97 | 1009.9 |
| 20260904114207 | 73 | 158 | 0.0 | 0.0 | 0.00 | 0.48 | 0.00 | 97 | 1009.8 |
| 20260904114024 | 73 | 158 | 0.0 | 0.0 | 0.00 | 0.48 | 0.00 | 97 | 1009.7 |
| 20260904113820 | 73 | 158 | 0.0 | 0.0 | 0.00 | 0.48 | 0.00 | 97 | 1009.8 |
| 20260904113709 | 73 | 157 | 0.0 | 0.0 | 0.00 | 0.48 | 0.00 | 97 | 1009.7 |
| 20260904113619 | 73 | 157 | 0.0 | 0.0 | 0.00 | 0.48 | 0.00 | 97 | 1009.7 |
| 20260904113507 | 73 | 158 | 0.0 | 0.0 | 0.00 | 0.48 | 0.00 | 97 | 1009.9 |
| 20260904113454 | 73 | 158 | 0.0 | 0.0 | 0.00 | 0.48 | 0.00 | 97 | 1009.8 |
| 20260904113427 | 73 | 159 | 0.0 | 0.0 | 0.00 | 0.48 | 0.00 | 97 | 1009.9 |
| 20260904113015 | 73 | 158 | 0.0 | 0.0 | 0.00 | 0.48 | 0.00 | 97 | 1010.0 |
| 20260904112815 | 73 | 158 | 0.0 | 0.0 | 0.00 | 0.48 | 0.00 | 97 | 1009.9 |
| 20260904112726 | 73 | 158 | 0.0 | 0.0 | 0.00 | 0.50 | 0.00 | 97 | 1009.7 |
| 20260904112707 | 73 | 158 | 0.0 | 0.0 | 0.00 | 0.48 | 0.00 | 97 | 1009.8 |
| 20260904112606 | 73 | 158 | 0.0 | 0.0 | 0.00 | 0.49 | 0.00 | 97 | 1009.7 |
| 20260904112536 | 73 | 158 | 0.0 | 0.0 | 0.00 | 0.55 | 0.00 | 97 | 1009.7 |
| 20260904112203 | 73 | 158 | 0.0 | 0.0 | 0.00 | 0.55 | 0.00 | 97 | 1009.7 |
| 20260904112005 | 73 | 158 | 0.0 | 0.0 | 0.00 | 0.55 | 0.00 | 97 | 1009.8 |
| 20260904111807 | 73 | 158 | 0.0 | 0.0 | 0.00 | 0.55 | 0.00 | 96 | 1009.9 |
| 20260904111707 | 73 | 157 | 0.0 | 0.0 | 0.00 | 0.55 | 0.00 | 97 | 1009.9 |
| 20260904111607 | 73 | 158 | 0.0 | 0.0 | 0.00 | 0.55 | 0.00 | 96 | 1009.9 |
| 20260904111452 | 73 | 158 | 0.0 | 0.0 | 0.00 | 0.55 | 0.00 | 96 | 1009.8 |
| 20260904111448 | 73 | 158 | 0.0 | 0.0 | 0.00 | 0.55 | 0.00 | 96 | 1009.8 |
| 20260904111442 | 73 | 158 | 0.0 | 0.0 | 0.00 | 0.55 | 0.00 | 96 | 1009.8 |
| 20260904111034 | 74 | 158 | 0.0 | 0.0 | 0.00 | 0.55 | 0.00 | 97 | 1009.8 |
| 20260904110735 | 74 | 158 | 0.0 | 0.0 | 0.00 | 0.55 | 0.00 | 97 | 1009.9 |
| 20260904110707 | 74 | 158 | 0.0 | 0.0 | 0.00 | 0.55 | 0.00 | 97 | 1009.8 |
| 20260904110526 | 74 | 158 | 0.0 | 0.0 | 0.00 | 0.55 | 0.00 | 97 | 1009.8 |
| 20260904110449 | 74 | 158 | 0.0 | 0.0 | 0.00 | 0.55 | 0.00 | 97 | 1009.7 |
| 20260904110432 | 74 | 158 | 0.0 | 0.0 | 0.00 | 0.55 | 0.00 | 97 | 1009.8 |
| 20260904110123 | 74 | 158 | 0.0 | 0.0 | 0.00 | 0.55 | 0.00 | 97 | 1009.7 |
| 20260904105922 | 74 | 158 | 0.0 | 0.0 | 0.00 | 0.55 | 0.00 | 97 | 1009.7 |
| 20260904105827 | 74 | 157 | 0.0 | 0.0 | 0.00 | 0.55 | 0.00 | 97 | 1009.7 |
| 20260904105705 | 74 | 158 | 0.0 | 0.0 | 0.00 | 0.55 | 0.00 | 97 | 1009.7 |
| 20260904105522 | 74 | 158 | 0.0 | 0.0 | 0.00 | 0.55 | 0.00 | 97 | 1009.8 |
| 20260904105321 | 74 | 158 | 0.0 | 0.0 | 0.00 | 0.55 | 0.00 | 97 | 1009.7 |
| 20260904105201 | 74 | 158 | 0.0 | 0.0 | 0.00 | 0.55 | 0.00 | 97 | 1009.7 |
| 20260904105126 | 73 | 158 | 0.0 | 0.0 | 0.00 | 0.55 | 0.00 | 97 | 1009.8 |
| 20260904105118 | 74 | 159 | 0.0 | 0.0 | 0.00 | 0.55 | 0.00 | 97 | 1009.7 |
| 20260904104716 | 73 | 158 | 0.0 | 0.0 | 0.00 | 0.55 | 0.00 | 97 | 1009.8 |
| 20260904104701 | 73 | 157 | 0.0 | 0.0 | 0.00 | 0.55 | 0.00 | 97 | 1009.7 |
| 20260904104514 | 73 | 158 | 0.0 | 0.0 | 0.00 | 0.55 | 0.00 | 97 | 1009.7 |
| 20260904104313 | 73 | 158 | 0.0 | 0.0 | 0.00 | 0.55 | 0.00 | 97 | 1009.7 |
| 20260904104203 | 73 | 157 | 0.0 | 0.0 | 0.00 | 0.55 | 0.00 | 97 | 1009.7 |
| 20260904104109 | 72 | 159 | 0.0 | 0.0 | 0.00 | 0.55 | 0.00 | 97 | 1009.7 |
| 20260904103909 | 72 | 158 | 0.0 | 0.0 | 0.00 | 0.55 | 0.00 | 96 | 1009.7 |
| 20260904103714 | 72 | 157 | 0.0 | 0.0 | 0.00 | 0.55 | 0.00 | 97 | 1009.8 |
| 20260904103701 | 72 | 157 | 0.0 | 0.0 | 0.00 | 0.55 | 0.00 | 96 | 1009.8 |
| 20260904103305 | 73 | 158 | 0.0 | 0.0 | 0.00 | 0.55 | 0.00 | 97 | 1009.8 |
| 20260904103202 | 73 | 158 | 0.0 | 0.0 | 0.00 | 0.55 | 0.00 | 97 | 1009.7 |
| 20260904103106 | 73 | 157 | 0.0 | 0.0 | 0.00 | 0.55 | 0.00 | 97 | 1009.8 |
| 20260904102855 | 73 | 157 | 0.0 | 0.0 | 0.00 | 0.55 | 0.00 | 97 | 1009.8 |
| 20260904102632 | 73 | 157 | 0.0 | 0.0 | 0.00 | 0.55 | 0.00 | 96 | 1009.9 |
| 20260904102431 | 73 | 157 | 0.0 | 0.0 | 0.00 | 0.55 | 0.00 | 96 | 1009.9 |
| 20260904102246 | 73 | 157 | 0.0 | 0.0 | 0.00 | 0.55 | 0.00 | 97 | 1009.8 |
| 20260904102231 | 73 | 157 | 0.0 | 0.0 | 0.00 | 0.55 | 0.00 | 97 | 1009.9 |
| 20260904102144 | 73 | 157 | 0.0 | 0.0 | 0.00 | 0.55 | 0.00 | 97 | 1009.8 |
| 20260904101921 | 73 | 157 | 0.0 | 0.0 | 0.00 | 0.55 | 0.00 | 96 | 1009.8 |
| 20260904101911 | 73 | 157 | 0.0 | 0.0 | 0.00 | 0.55 | 0.00 | 97 | 1009.8 |
| 20260904101620 | 73 | 155 | 0.0 | 0.0 | 0.00 | 0.55 | 0.00 | 96 | 1009.8 |
| 20260904101434 | 73 | 157 | 0.0 | 0.0 | 0.00 | 0.55 | 0.00 | 96 | 1009.6 |
| 20260904101426 | 73 | 157 | 0.0 | 0.0 | 0.00 | 0.55 | 0.00 | 96 | 1009.7 |
| 20260904101358 | 73 | 157 | 0.0 | 0.0 | 0.00 | 0.55 | 0.00 | 96 | 1009.7 |
| 20260904101120 | 73 | 157 | 0.0 | 0.0 | 0.00 | 0.55 | 0.00 | 96 | 1009.6 |
| 20260904100816 | 73 | 158 | 0.0 | 0.0 | 0.00 | 0.55 | 0.00 | 96 | 1009.6 |
| 20260904100636 | 73 | 158 | 0.0 | 0.0 | 0.00 | 0.55 | 0.00 | 96 | 1009.7 |
| 20260904100618 | 73 | 157 | 0.0 | 0.0 | 0.00 | 0.55 | 0.00 | 96 | 1009.6 |
| 20260904100428 | 73 | 157 | 0.0 | 0.0 | 0.00 | 0.55 | 0.00 | 97 | 1009.6 |
| 20260904100421 | 73 | 158 | 0.0 | 0.0 | 0.00 | 0.55 | 0.00 | 96 | 1009.6 |
| 20260904100357 | 73 | 157 | 0.0 | 0.0 | 0.00 | 0.55 | 0.00 | 97 | 1009.6 |
| 20260904100116 | 73 | 157 | 0.0 | 0.0 | 0.00 | 0.55 | 0.00 | 97 | 1009.6 |
| 20260904095749 | 73 | 158 | 0.0 | 0.0 | 0.00 | 0.55 | 0.00 | 97 | 1009.6 |
| 20260904095644 | 73 | 157 | 0.0 | 0.0 | 0.00 | 0.55 | 0.00 | 96 | 1009.6 |
| 20260904095629 | 73 | 158 | 0.0 | 0.0 | 0.00 | 0.55 | 0.00 | 96 | 1009.6 |
| 20260904095425 | 73 | 157 | 0.0 | 0.0 | 0.00 | 0.55 | 0.00 | 96 | 1009.6 |
| 20260904095413 | 73 | 155 | 0.0 | 0.0 | 0.00 | 0.55 | 0.00 | 97 | 1009.6 |
| 20260904095345 | 73 | 157 | 0.0 | 0.0 | 0.00 | 0.55 | 0.00 | 96 | 1009.6 |
| 20260904094941 | 73 | 158 | 0.0 | 0.0 | 0.00 | 0.55 | 0.00 | 96 | 1009.7 |
| 20260904094738 | 73 | 158 | 0.0 | 0.0 | 0.00 | 0.55 | 0.00 | 96 | 1009.7 |
| 20260904094642 | 73 | 158 | 0.0 | 0.0 | 0.00 | 0.55 | 0.00 | 96 | 1009.7 |
| 20260904094629 | 73 | 157 | 0.0 | 0.0 | 0.00 | 0.55 | 0.00 | 96 | 1009.7 |
| 20260904094426 | 73 | 157 | 0.0 | 0.0 | 0.00 | 0.55 | 0.00 | 96 | 1009.7 |
| 20260904094411 | 73 | 157 | 0.0 | 0.0 | 0.00 | 0.55 | 0.00 | 96 | 1009.7 |
| 20260904093939 | 73 | 157 | 0.0 | 0.0 | 0.00 | 0.55 | 0.00 | 96 | 1009.6 |
| 20260904093741 | 73 | 157 | 0.0 | 0.0 | 0.00 | 0.55 | 0.00 | 96 | 1009.5 |
| 20260904093630 | 73 | 158 | 0.0 | 0.0 | 0.00 | 0.55 | 0.00 | 96 | 1009.5 |
| 20260904093533 | 73 | 158 | 0.0 | 0.0 | 0.00 | 0.55 | 0.00 | 96 | 1009.5 |
| 20260904093436 | 73 | 159 | 0.0 | 0.0 | 0.00 | 0.55 | 0.00 | 96 | 1009.4 |
| 20260904093421 | 73 | 157 | 0.0 | 0.0 | 0.00 | 0.55 | 0.00 | 96 | 1009.5 |
| 20260904093347 | 73 | 159 | 0.0 | 0.0 | 0.00 | 0.55 | 0.00 | 96 | 1009.4 |
| 20260904092932 | 73 | 157 | 0.0 | 0.0 | 0.00 | 0.55 | 0.00 | 96 | 1009.5 |
| 20260904092833 | 73 | 157 | 0.0 | 0.0 | 0.00 | 0.55 | 0.00 | 96 | 1009.5 |
| 20260904092630 | 73 | 155 | 0.0 | 0.0 | 0.00 | 0.55 | 0.00 | 96 | 1009.5 |
| 20260904092541 | 73 | 158 | 0.0 | 0.0 | 0.00 | 0.55 | 0.00 | 96 | 1009.4 |
| 20260904092534 | 73 | 157 | 0.0 | 0.0 | 0.00 | 0.55 | 0.00 | 96 | 1009.5 |
| 20260904092437 | 73 | 155 | 0.0 | 0.0 | 0.00 | 0.55 | 0.00 | 96 | 1009.4 |
| 20260904092346 | 73 | 155 | 0.0 | 0.0 | 0.00 | 0.55 | 0.00 | 96 | 1009.4 |
| 20260904091933 | 73 | 157 | 0.0 | 0.0 | 0.00 | 0.55 | 0.00 | 96 | 1009.4 |
| 20260904091716 | 73 | 157 | 0.0 | 0.0 | 0.00 | 0.55 | 0.00 | 96 | 1009.4 |
| 20260904091628 | 73 | 157 | 0.0 | 0.0 | 0.00 | 0.55 | 0.00 | 96 | 1009.5 |
| 20260904091528 | 73 | 158 | 0.0 | 0.0 | 0.00 | 0.55 | 0.00 | 96 | 1009.5 |
| 20260904091524 | 73 | 157 | 0.0 | 0.0 | 0.00 | 0.55 | 0.00 | 96 | 1009.4 |
| 20260904091415 | 73 | 157 | 0.0 | 0.0 | 0.00 | 0.55 | 0.00 | 96 | 1009.5 |
| 20260904091114 | 73 | 157 | 0.0 | 0.0 | 0.00 | 0.55 | 0.00 | 96 | 1009.5 |
| 20260904091015 | 73 | 157 | 0.0 | 0.0 | 0.00 | 0.55 | 0.00 | 96 | 1009.5 |
| 20260904090714 | 73 | 158 | 0.0 | 0.0 | 0.00 | 0.55 | 0.00 | 96 | 1009.4 |
| 20260904090629 | 73 | 158 | 0.0 | 0.0 | 0.00 | 0.55 | 0.00 | 96 | 1009.4 |
| 20260904090513 | 73 | 157 | 0.0 | 0.0 | 0.00 | 0.55 | 0.00 | 96 | 1009.4 |
| 20260904090315 | 73 | 159 | 0.0 | 0.0 | 0.00 | 0.55 | 0.00 | 96 | 1009.4 |
| 20260904090115 | 73 | 157 | 0.0 | 0.0 | 0.00 | 0.55 | 0.00 | 96 | 1009.4 |
| 20260904090012 | 73 | 157 | 0.0 | 0.0 | 0.00 | 0.55 | 0.00 | 96 | 1009.4 |
| 20260904085713 | 73 | 158 | 0.0 | 0.0 | 0.00 | 0.55 | 0.00 | 96 | 1009.4 |
| 20260904085624 | 73 | 157 | 0.0 | 0.0 | 0.00 | 0.55 | 0.00 | 96 | 1009.3 |
| 20260904085615 | 73 | 157 | 0.0 | 0.0 | 0.00 | 0.55 | 0.00 | 96 | 1009.4 |
| 20260904085315 | 73 | 157 | 0.0 | 0.0 | 0.00 | 0.55 | 0.00 | 96 | 1009.4 |
| 20260904085215 | 74 | 155 | 0.0 | 0.0 | 0.00 | 0.55 | 0.00 | 96 | 1009.4 |
| 20260904085114 | 74 | 155 | 0.0 | 0.0 | 0.00 | 0.55 | 0.00 | 96 | 1009.4 |
| 20260904084924 | 73 | 158 | 0.0 | 0.0 | 0.00 | 0.55 | 0.00 | 96 | 1009.4 |
| 20260904084717 | 73 | 158 | 0.0 | 0.0 | 0.00 | 0.55 | 0.00 | 95 | 1009.4 |
| 20260904084613 | 74 | 157 | 0.0 | 0.0 | 0.00 | 0.55 | 0.00 | 95 | 1009.3 |
| 20260904084530 | 74 | 158 | 0.0 | 0.0 | 0.00 | 0.55 | 0.00 | 95 | 1009.3 |
| 20260904084316 | 74 | 157 | 0.0 | 0.0 | 0.00 | 0.55 | 0.00 | 95 | 1009.3 |
| 20260904084117 | 74 | 158 | 0.0 | 0.0 | 0.00 | 0.55 | 0.00 | 95 | 1009.3 |
| 20260904084022 | 74 | 157 | 0.0 | 0.0 | 0.00 | 0.55 | 0.00 | 95 | 1009.2 |
| 20260904083822 | 74 | 157 | 0.0 | 0.0 | 0.00 | 0.55 | 0.00 | 96 | 1009.2 |
| 20260904083615 | 74 | 155 | 0.0 | 0.0 | 0.00 | 0.55 | 0.00 | 96 | 1009.3 |
| 20260904083517 | 74 | 157 | 0.0 | 0.0 | 0.00 | 0.55 | 0.00 | 96 | 1009.2 |
| 20260904083316 | 74 | 158 | 0.0 | 0.0 | 0.00 | 0.55 | 0.00 | 96 | 1009.3 |
| 20260904083118 | 74 | 158 | 0.0 | 0.0 | 0.00 | 0.55 | 0.00 | 96 | 1009.2 |
| 20260904082921 | 74 | 157 | 0.0 | 0.0 | 0.00 | 0.55 | 0.00 | 95 | 1009.2 |
| 20260904082721 | 74 | 157 | 0.0 | 0.0 | 0.00 | 0.55 | 0.00 | 95 | 1009.2 |
| 20260904082627 | 74 | 158 | 0.0 | 0.0 | 0.00 | 0.55 | 0.00 | 95 | 1009.2 |
| 20260904082618 | 74 | 157 | 0.0 | 0.0 | 0.00 | 0.55 | 0.00 | 95 | 1009.2 |
| 20260904082418 | 74 | 158 | 0.0 | 0.0 | 0.00 | 0.55 | 0.00 | 95 | 1009.3 |
| 20260904082120 | 74 | 158 | 0.0 | 0.0 | 0.00 | 0.55 | 0.00 | 95 | 1009.2 |
| 20260904081918 | 74 | 157 | 0.0 | 0.0 | 0.00 | 0.55 | 0.00 | 95 | 1009.2 |
| 20260904081721 | 74 | 157 | 0.0 | 0.0 | 0.00 | 0.55 | 0.00 | 95 | 1009.2 |
| 20260904081617 | 74 | 158 | 0.0 | 0.0 | 0.00 | 0.55 | 0.00 | 95 | 1009.1 |
| 20260904081525 | 74 | 158 | 0.0 | 0.0 | 0.00 | 0.55 | 0.00 | 95 | 1009.1 |
| 20260904081318 | 74 | 155 | 0.0 | 0.0 | 0.00 | 0.55 | 0.00 | 95 | 1009.2 |
| 20260904081118 | 74 | 157 | 0.0 | 0.0 | 0.00 | 0.55 | 0.00 | 95 | 1009.2 |
| 20260904081036 | 74 | 157 | 0.0 | 0.0 | 0.00 | 0.55 | 0.00 | 95 | 1009.1 |
| 20260904080722 | 74 | 157 | 0.0 | 0.0 | 0.00 | 0.55 | 0.00 | 95 | 1009.1 |
| 20260904080618 | 74 | 157 | 0.0 | 0.0 | 0.00 | 0.55 | 0.00 | 95 | 1009.2 |
| 20260904080517 | 74 | 157 | 0.0 | 0.0 | 0.00 | 0.55 | 0.00 | 95 | 1009.1 |
| 20260904080318 | 74 | 158 | 0.0 | 0.0 | 0.00 | 0.55 | 0.00 | 95 | 1009.1 |
| 20260904080119 | 74 | 157 | 0.0 | 0.0 | 0.00 | 0.55 | 0.00 | 95 | 1009.1 |
| 20260904080025 | 74 | 157 | 0.0 | 0.0 | 0.00 | 0.55 | 0.00 | 95 | 1009.1 |
| 20260904075716 | 74 | 157 | 0.0 | 0.0 | 0.00 | 0.55 | 0.00 | 95 | 1009.1 |
| 20260904075627 | 75 | 157 | 0.0 | 0.0 | 0.00 | 0.55 | 0.00 | 95 | 1009.1 |
| 20260904075614 | 74 | 157 | 0.0 | 0.0 | 0.00 | 0.55 | 0.00 | 95 | 1009.1 |
| 20260904075318 | 75 | 157 | 0.0 | 0.0 | 0.00 | 0.55 | 0.00 | 95 | 1009.2 |
| 20260904075122 | 75 | 158 | 0.0 | 0.0 | 0.00 | 0.55 | 0.00 | 95 | 1009.2 |
| 20260904074917 | 75 | 159 | 0.0 | 0.0 | 0.00 | 0.55 | 0.00 | 94 | 1009.1 |
| 20260904074717 | 75 | 158 | 0.0 | 0.0 | 0.00 | 0.55 | 0.00 | 94 | 1009.2 |
| 20260904074619 | 75 | 158 | 0.0 | 0.0 | 0.00 | 0.55 | 0.00 | 94 | 1009.2 |
| 20260904074602 | 75 | 158 | 0.0 | 0.0 | 0.00 | 0.55 | 0.00 | 94 | 1009.2 |
| 20260904074315 | 75 | 157 | 0.0 | 0.0 | 0.00 | 0.55 | 0.00 | 94 | 1009.1 |
| 20260904074220 | 75 | 157 | 0.0 | 0.0 | 0.00 | 0.55 | 0.00 | 94 | 1009.1 |
| 20260904074101 | 75 | 158 | 0.0 | 0.0 | 0.00 | 0.55 | 0.00 | 94 | 1009.1 |
| 20260904073919 | 75 | 157 | 0.0 | 0.0 | 0.00 | 0.55 | 0.00 | 94 | 1009.1 |
| 20260904073719 | 75 | 157 | 0.0 | 0.0 | 0.00 | 0.55 | 0.00 | 94 | 1009.1 |
| 20260904073601 | 75 | 157 | 0.0 | 0.0 | 0.00 | 0.55 | 0.00 | 94 | 1009.1 |
| 20260904073521 | 75 | 158 | 0.0 | 0.0 | 0.00 | 0.55 | 0.00 | 94 | 1009.1 |
| 20260904073320 | 75 | 157 | 0.0 | 0.0 | 0.00 | 0.55 | 0.00 | 94 | 1009.2 |
| 20260904073223 | 75 | 155 | 0.0 | 0.0 | 0.00 | 0.55 | 0.00 | 94 | 1009.1 |
| 20260904073101 | 75 | 158 | 0.0 | 0.0 | 0.00 | 0.55 | 0.00 | 94 | 1009.2 |
| 20260904072918 | 75 | 158 | 0.0 | 0.0 | 0.00 | 0.55 | 0.00 | 94 | 1009.1 |
| 20260904072903 | 75 | 158 | 0.0 | 0.0 | 0.00 | 0.55 | 0.00 | 94 | 1009.1 |
| 20260904072858 | 75 | 157 | 0.0 | 0.0 | 0.00 | 0.55 | 0.00 | 94 | 1009.1 |
| 20260904072832 | 75 | 157 | 0.0 | 0.0 | 0.00 | 0.55 | 0.00 | 94 | 1009.2 |
| 20260904072323 | 75 | 157 | 0.0 | 0.0 | 0.00 | 0.55 | 0.00 | 94 | 1009.1 |
| 20260904072218 | 75 | 157 | 0.0 | 0.0 | 0.00 | 0.55 | 0.00 | 94 | 1009.1 |
| 20260904072101 | 75 | 158 | 0.0 | 0.0 | 0.00 | 0.55 | 0.00 | 94 | 1009.1 |
| 20260904071917 | 76 | 158 | 0.0 | 0.0 | 0.00 | 0.55 | 0.00 | 94 | 1009.1 |
| 20260904071859 | 76 | 158 | 0.0 | 0.0 | 0.00 | 0.55 | 0.00 | 94 | 1009.1 |
| 20260904071834 | 76 | 157 | 0.0 | 0.0 | 0.00 | 0.55 | 0.00 | 94 | 1009.1 |
| 20260904071522 | 76 | 158 | 0.0 | 0.0 | 0.00 | 0.55 | 0.00 | 94 | 1009.1 |
| 20260904071318 | 76 | 157 | 0.0 | 0.0 | 0.00 | 0.55 | 0.00 | 94 | 1009.2 |
| 20260904071224 | 76 | 158 | 0.0 | 0.0 | 0.00 | 0.55 | 0.00 | 93 | 1009.1 |
| 20260904071100 | 76 | 157 | 0.0 | 0.0 | 0.00 | 0.55 | 0.00 | 93 | 1009.1 |
| 20260904070934 | 76 | 158 | 0.0 | 0.0 | 0.00 | 0.55 | 0.00 | 93 | 1009.2 |
| 20260904070917 | 76 | 158 | 0.0 | 0.0 | 0.00 | 0.55 | 0.00 | 93 | 1009.1 |
| 20260904070853 | 76 | 158 | 0.0 | 0.0 | 0.00 | 0.55 | 0.00 | 93 | 1009.1 |
| 20260904070533 | 76 | 158 | 0.0 | 0.0 | 0.00 | 0.55 | 0.00 | 93 | 1009.1 |
| 20260904070318 | 76 | 158 | 0.0 | 0.0 | 0.00 | 0.55 | 0.00 | 93 | 1009.2 |
| 20260904070118 | 76 | 158 | 0.0 | 0.0 | 0.00 | 0.55 | 0.00 | 93 | 1009.1 |
| 20260904070031 | 76 | 158 | 0.0 | 0.0 | 0.00 | 0.55 | 0.00 | 93 | 1009.1 |
| 20260904065916 | 76 | 157 | 0.0 | 0.0 | 0.00 | 0.55 | 0.00 | 93 | 1009.2 |
| 20260904065815 | 76 | 157 | 0.0 | 0.0 | 0.00 | 0.55 | 0.00 | 93 | 1009.2 |
| 20260904065523 | 76 | 157 | 0.0 | 0.0 | 0.00 | 0.55 | 0.00 | 93 | 1009.2 |
| 20260904065419 | 76 | 158 | 0.0 | 0.0 | 0.00 | 0.55 | 0.00 | 93 | 1009.2 |
| 20260904065116 | 76 | 157 | 0.0 | 0.0 | 0.00 | 0.55 | 0.00 | 93 | 1009.2 |
| 20260904065026 | 76 | 155 | 0.0 | 0.0 | 0.00 | 0.55 | 0.00 | 93 | 1009.1 |
| 20260904064918 | 76 | 158 | 0.0 | 0.0 | 0.00 | 0.55 | 0.00 | 93 | 1009.1 |
| 20260904064819 | 76 | 158 | 0.0 | 0.0 | 0.00 | 0.55 | 0.00 | 93 | 1009.1 |
| 20260904064522 | 76 | 157 | 0.0 | 0.0 | 0.00 | 0.55 | 0.00 | 93 | 1009.2 |
| 20260904064419 | 76 | 157 | 0.0 | 0.0 | 0.00 | 0.55 | 0.00 | 93 | 1009.1 |
| 20260904064116 | 77 | 155 | 0.0 | 0.0 | 0.00 | 0.55 | 0.00 | 93 | 1009.2 |
| 20260904064025 | 77 | 158 | 0.0 | 0.0 | 0.00 | 0.55 | 0.00 | 93 | 1009.2 |
| 20260904063919 | 76 | 157 | 0.0 | 0.0 | 0.00 | 0.55 | 0.00 | 93 | 1009.2 |
| 20260904063717 | 77 | 157 | 0.0 | 0.0 | 0.00 | 0.55 | 0.00 | 93 | 1009.2 |
| 20260904063525 | 77 | 158 | 0.0 | 0.0 | 0.00 | 0.55 | 0.00 | 93 | 1009.3 |
| 20260904063521 | 77 | 157 | 0.0 | 0.0 | 0.00 | 0.55 | 0.00 | 93 | 1009.3 |
| 20260904063421 | 77 | 158 | 0.0 | 0.0 | 0.00 | 0.55 | 0.00 | 93 | 1009.3 |
| 20260904063117 | 77 | 158 | 0.0 | 0.0 | 0.00 | 0.55 | 0.00 | 93 | 1009.1 |
| 20260904063035 | 77 | 157 | 0.0 | 0.0 | 0.00 | 0.55 | 0.00 | 93 | 1009.2 |
| 20260904063024 | 77 | 157 | 0.0 | 0.0 | 0.00 | 0.55 | 0.00 | 93 | 1009.1 |
| 20260904062718 | 77 | 157 | 0.0 | 0.0 | 0.00 | 0.55 | 0.00 | 93 | 1009.2 |
| 20260904062517 | 77 | 158 | 0.0 | 0.0 | 0.00 | 0.55 | 0.00 | 93 | 1009.2 |
| 20260904062317 | 77 | 157 | 0.0 | 0.0 | 0.00 | 0.55 | 0.00 | 93 | 1009.3 |
| 20260904062119 | 77 | 158 | 0.0 | 0.0 | 0.00 | 0.55 | 0.00 | 93 | 1009.3 |
| 20260904062034 | 77 | 157 | 0.0 | 0.0 | 0.00 | 0.55 | 0.00 | 93 | 1009.2 |
| 20260904062023 | 77 | 158 | 0.0 | 0.0 | 0.00 | 0.55 | 0.00 | 93 | 1009.2 |
| 20260904061727 | 77 | 158 | 0.0 | 0.0 | 0.00 | 0.55 | 0.00 | 92 | 1009.3 |
| 20260904061634 | 77 | 158 | 0.0 | 0.0 | 0.00 | 0.55 | 0.00 | 92 | 1009.3 |
| 20260904061533 | 77 | 158 | 0.0 | 0.0 | 0.00 | 0.55 | 0.00 | 92 | 1009.3 |
| 20260904061321 | 77 | 158 | 0.0 | 0.0 | 0.00 | 0.55 | 0.00 | 92 | 1009.3 |
| 20260904061118 | 77 | 158 | 0.0 | 0.0 | 0.00 | 0.55 | 0.00 | 92 | 1009.2 |
| 20260904061025 | 77 | 158 | 0.0 | 0.0 | 0.00 | 0.55 | 0.00 | 92 | 1009.3 |
| 20260904060921 | 77 | 158 | 0.0 | 0.0 | 0.00 | 0.55 | 0.00 | 92 | 1009.3 |
| 20260904060727 | 77 | 158 | 0.0 | 0.0 | 0.00 | 0.55 | 0.00 | 92 | 1009.2 |
| 20260904060532 | 77 | 155 | 0.0 | 0.0 | 0.00 | 0.55 | 0.00 | 92 | 1009.3 |
| 20260904060319 | 77 | 157 | 0.0 | 0.0 | 0.00 | 0.55 | 0.00 | 92 | 1009.3 |
| 20260904060119 | 77 | 157 | 0.0 | 0.0 | 0.00 | 0.55 | 0.00 | 92 | 1009.2 |
| 20260904060020 | 77 | 155 | 0.0 | 0.0 | 0.00 | 0.55 | 0.00 | 92 | 1009.2 |
| 20260904055917 | 77 | 158 | 0.0 | 0.0 | 0.00 | 0.55 | 0.00 | 92 | 1009.3 |
| 20260904055818 | 77 | 157 | 0.0 | 0.0 | 0.00 | 0.55 | 0.00 | 92 | 1009.2 |
| 20260904055633 | 77 | 157 | 0.0 | 0.0 | 0.00 | 0.55 | 0.00 | 92 | 1009.3 |
| 20260904055521 | 77 | 157 | 0.0 | 0.0 | 0.00 | 0.55 | 0.00 | 92 | 1009.3 |
| 20260904055319 | 77 | 158 | 0.0 | 0.0 | 0.00 | 0.55 | 0.00 | 92 | 1009.3 |
| 20260904055117 | 77 | 155 | 0.0 | 0.0 | 0.00 | 0.55 | 0.00 | 92 | 1009.2 |
| 20260904055016 | 77 | 158 | 0.0 | 0.0 | 0.00 | 0.55 | 0.00 | 92 | 1009.3 |
| 20260904054916 | 77 | 157 | 0.0 | 0.0 | 0.00 | 0.55 | 0.00 | 92 | 1009.3 |
| 20260904054716 | 77 | 157 | 0.0 | 0.0 | 0.00 | 0.55 | 0.00 | 92 | 1009.3 |
| 20260904054522 | 77 | 158 | 0.0 | 0.0 | 0.00 | 0.55 | 0.00 | 92 | 1009.3 |
| 20260904054419 | 77 | 157 | 0.0 | 0.0 | 0.00 | 0.55 | 0.00 | 92 | 1009.2 |
| 20260904054223 | 77 | 158 | 0.0 | 0.0 | 0.00 | 0.55 | 0.00 | 92 | 1009.2 |
| 20260904054019 | 77 | 159 | 0.0 | 0.0 | 0.00 | 0.55 | 0.00 | 92 | 1009.3 |
| 20260904053918 | 77 | 157 | 0.0 | 0.0 | 0.00 | 0.55 | 0.00 | 92 | 1009.2 |
| 20260904053719 | 77 | 157 | 0.0 | 0.0 | 0.00 | 0.55 | 0.00 | 92 | 1009.2 |
| 20260904053520 | 77 | 157 | 0.0 | 0.0 | 0.00 | 0.55 | 0.00 | 92 | 1009.2 |
| 20260904053320 | 77 | 157 | 0.0 | 0.0 | 0.00 | 0.55 | 0.00 | 92 | 1009.2 |
| 20260904053120 | 77 | 158 | 0.0 | 0.0 | 0.00 | 0.55 | 0.00 | 92 | 1009.3 |
| 20260904053028 | 77 | 157 | 0.0 | 0.0 | 0.00 | 0.55 | 0.00 | 92 | 1009.2 |
| 20260904053018 | 77 | 157 | 0.0 | 0.0 | 0.00 | 0.55 | 0.00 | 92 | 1009.3 |
| 20260904052718 | 78 | 158 | 0.0 | 0.0 | 0.00 | 0.55 | 0.00 | 92 | 1009.2 |
| 20260904052626 | 78 | 157 | 0.0 | 0.0 | 0.00 | 0.55 | 0.00 | 91 | 1009.2 |
| 20260904052523 | 78 | 157 | 0.0 | 0.0 | 0.00 | 0.55 | 0.00 | 91 | 1009.2 |
| 20260904052318 | 77 | 155 | 0.0 | 0.0 | 0.00 | 0.55 | 0.00 | 91 | 1009.2 |
| 20260904052126 | 77 | 157 | 0.0 | 0.0 | 0.00 | 0.55 | 0.00 | 91 | 1009.2 |
| 20260904052033 | 78 | 158 | 0.0 | 0.0 | 0.00 | 0.55 | 0.00 | 91 | 1009.2 |
| 20260904052021 | 78 | 157 | 0.0 | 0.0 | 0.00 | 0.55 | 0.00 | 91 | 1009.1 |
| 20260904051718 | 78 | 158 | 0.0 | 0.0 | 0.00 | 0.55 | 0.00 | 91 | 1009.2 |
| 20260904051518 | 78 | 157 | 0.0 | 0.0 | 0.00 | 0.55 | 0.00 | 91 | 1009.2 |
| 20260904051320 | 78 | 158 | 0.0 | 0.0 | 0.00 | 0.55 | 0.00 | 91 | 1009.2 |
| 20260904051217 | 78 | 157 | 0.0 | 0.0 | 0.00 | 0.55 | 0.00 | 91 | 1009.2 |
| 20260904051031 | 78 | 157 | 0.0 | 0.0 | 0.00 | 0.55 | 0.00 | 91 | 1009.2 |
| 20260904050917 | 78 | 157 | 0.0 | 0.0 | 0.00 | 0.55 | 0.00 | 91 | 1009.2 |
| 20260904050719 | 78 | 159 | 0.0 | 0.0 | 0.00 | 0.55 | 0.00 | 91 | 1009.1 |
| 20260904050626 | 78 | 157 | 0.0 | 0.0 | 0.00 | 0.55 | 0.00 | 91 | 1009.2 |
| 20260904050521 | 78 | 157 | 0.0 | 0.0 | 0.00 | 0.55 | 0.00 | 91 | 1009.2 |
| 20260904050316 | 78 | 157 | 0.0 | 0.0 | 0.00 | 0.55 | 0.00 | 91 | 1009.2 |
| 20260904050120 | 78 | 158 | 0.0 | 0.0 | 0.00 | 0.55 | 0.00 | 91 | 1009.1 |
| 20260904050018 | 78 | 158 | 0.0 | 0.0 | 0.00 | 0.55 | 0.00 | 91 | 1009.1 |
| 20260904045918 | 78 | 155 | 0.0 | 0.0 | 0.00 | 0.55 | 0.55 | 91 | 1009.2 |
| 20260904045819 | 78 | 157 | 0.0 | 0.0 | 0.00 | 0.55 | 0.55 | 91 | 1009.2 |
| 20260904045505 | 78 | 157 | 0.0 | 0.0 | 0.00 | 0.55 | 0.55 | 91 | 1009.1 |
| 20260904045316 | 78 | 157 | 0.0 | 0.0 | 0.00 | 0.55 | 0.55 | 91 | 1009.2 |
| 20260904045219 | 78 | 157 | 0.0 | 0.0 | 0.00 | 0.55 | 0.55 | 91 | 1009.1 |
| 20260904045006 | 78 | 155 | 0.0 | 0.0 | 0.00 | 0.55 | 0.55 | 91 | 1009.1 |
| 20260904044915 | 78 | 157 | 0.0 | 0.0 | 0.00 | 0.55 | 0.55 | 91 | 1009.1 |
| 20260904044804 | 78 | 157 | 0.0 | 0.0 | 0.00 | 0.55 | 0.55 | 91 | 1009.2 |
| 20260904044754 | 78 | 157 | 0.0 | 0.0 | 0.00 | 0.55 | 0.55 | 91 | 1009.2 |
| 20260904044319 | 78 | 155 | 0.0 | 0.0 | 0.00 | 0.55 | 0.55 | 90 | 1009.1 |
| 20260904044306 | 78 | 155 | 0.0 | 0.0 | 0.00 | 0.55 | 0.55 | 90 | 1009.2 |
| 20260904044302 | 78 | 157 | 0.0 | 0.0 | 0.00 | 0.55 | 0.55 | 90 | 1009.2 |
| 20260904044243 | 78 | 157 | 0.0 | 0.0 | 0.00 | 0.55 | 0.55 | 90 | 1009.1 |
| 20260904043820 | 78 | 158 | 0.0 | 0.0 | 0.00 | 0.55 | 0.55 | 90 | 1009.1 |
| 20260904043504 | 78 | 158 | 0.0 | 0.0 | 0.00 | 0.55 | 0.55 | 90 | 1009.2 |
| 20260904043423 | 78 | 157 | 0.0 | 0.0 | 0.00 | 0.55 | 0.55 | 90 | 1009.1 |
| 20260904043309 | 78 | 157 | 0.0 | 0.0 | 0.00 | 0.55 | 0.55 | 90 | 1009.2 |
| 20260904043252 | 78 | 157 | 0.0 | 0.0 | 0.00 | 0.55 | 0.55 | 90 | 1009.1 |
| 20260904042917 | 78 | 157 | 0.0 | 0.0 | 0.00 | 0.55 | 0.55 | 90 | 1009.2 |
| 20260904042721 | 78 | 158 | 0.0 | 0.0 | 0.00 | 0.55 | 0.55 | 90 | 1009.1 |
| 20260904042524 | 78 | 157 | 0.0 | 0.0 | 0.00 | 0.55 | 0.55 | 90 | 1009.1 |
| 20260904042504 | 78 | 155 | 0.0 | 0.0 | 0.00 | 0.55 | 0.55 | 90 | 1009.1 |
| 20260904042421 | 78 | 155 | 0.0 | 0.0 | 0.00 | 0.55 | 0.55 | 89 | 1009.2 |
| 20260904042251 | 78 | 157 | 0.0 | 0.0 | 0.00 | 0.55 | 0.55 | 89 | 1009.1 |
| 20260904042247 | 78 | 157 | 0.0 | 0.0 | 0.00 | 0.55 | 0.55 | 89 | 1009.0 |
| 20260904042236 | 78 | 157 | 0.0 | 0.0 | 0.00 | 0.55 | 0.55 | 89 | 1009.0 |
| 20260904041705 | 78 | 155 | 0.0 | 0.0 | 0.00 | 0.55 | 0.55 | 89 | 1009.1 |
| 20260904041510 | 0 | 0.0 | 0.0 | 0.00 | 0.00 | 0.00 | 1009.1 | ||
| 20260904041232 | 0 | 0.0 | 0.0 | 0.00 | 0.55 | 0.55 | |||
| 20260904041008 | 0 | 0.0 | 0.0 | 0.00 | 0.55 | 0.55 | |||
| 20260904040834 | 0 | 0.0 | 0.0 | 0.00 | 0.55 | 0.55 | |||
| 20260904040702 | 0 | 0.0 | 0.0 | 0.00 | 0.55 | 0.55 | |||
| 20260904040505 | 0 | 0.0 | 0.0 | 0.00 | 0.55 | 0.55 | |||
| 20260904040405 | 0 | 0.0 | 0.0 | 0.00 | 0.55 | 0.55 | |||
| 20260904040204 | 0 | 0.0 | 0.0 | 0.00 | 0.55 | 0.55 | |||
| 20260904040008 | 0 | 0.0 | 0.0 | 0.00 | 0.55 | 0.55 | 1009.1 | ||
| 20260904035932 | 0 | 0.0 | 0.0 | 0.00 | 0.55 | 0.55 | 1009.1 | ||
| 20260904035831 | 0 | 0.0 | 0.0 | 0.00 | 0.55 | 0.55 | 1009.1 | ||
| 20260904035507 | 79 | 155 | 0.0 | 0.0 | 0.00 | 0.55 | 0.55 | 88 | 1009.1 |
| 20260904035331 | 79 | 155 | 0.0 | 0.0 | 0.00 | 0.55 | 0.55 | 88 | 1009.1 |
| 20260904035201 | 79 | 155 | 0.0 | 0.0 | 0.00 | 0.55 | 0.55 | 88 | 1009.1 |
| 20260904035004 | 79 | 155 | 0.0 | 0.0 | 0.00 | 0.55 | 0.55 | 88 | 1009.1 |
| 20260904034902 | 79 | 155 | 0.0 | 0.0 | 0.00 | 0.55 | 0.55 | 88 | 1009.1 |
| 20260904034702 | 79 | 155 | 0.0 | 0.0 | 0.00 | 0.55 | 0.55 | 88 | 1009.1 |
| 20260904034504 | 79 | 157 | 0.0 | 0.0 | 0.00 | 0.55 | 0.55 | 88 | 1009.1 |
| 20260904034354 | 79 | 155 | 0.0 | 0.0 | 0.00 | 0.55 | 0.55 | 88 | 1009.1 |
| 20260904034102 | 0 | 155 | 0.0 | 0.0 | 0.00 | 0.55 | 0.55 | 1009.1 | |
| 20260904034000 | 0 | 155 | 0.0 | 0.0 | 0.00 | 0.55 | 0.55 | 1009.1 | |
| 20260904033904 | 0 | 155 | 0.0 | 0.0 | 0.00 | 0.55 | 0.55 | 1009.1 | |
| 20260904033803 | 0 | 155 | 0.0 | 0.0 | 0.00 | 0.55 | 0.55 | 1009.1 | |
| 20260904033503 | 0 | 0.0 | 0.0 | 0.00 | 0.00 | 0.00 | 1009.1 | ||
| 20260904033211 | 0 | 0.0 | 0.0 | 0.00 | 0.55 | 0.55 | |||
| 20260904033003 | 0 | 0.0 | 0.0 | 0.00 | 0.55 | 0.55 | |||
| 20260904032936 | 0 | 0.0 | 0.0 | 0.00 | 0.55 | 0.55 | |||
| 20260904032923 | 0 | 0.0 | 0.0 | 0.00 | 0.55 | 0.55 | |||
| 20260904032752 | 0 | 0.0 | 0.0 | 0.00 | 0.55 | 0.55 | |||
| 20260904032748 | 0 | 0.0 | 0.0 | 0.00 | 0.55 | 0.55 | |||
| 20260904032335 | 0 | 0.0 | 0.0 | 0.00 | 0.55 | 0.55 | |||
| 20260904032110 | 0 | 0.0 | 0.0 | 0.00 | 0.55 | 0.55 | 1009.2 | ||
| 20260904031907 | 0 | 0.0 | 0.0 | 0.00 | 0.55 | 0.55 | 1009.2 | ||
| 20260904031709 | 0 | 0.0 | 0.0 | 0.00 | 0.55 | 0.55 | 1009.2 | ||
| 20260904031639 | 79 | 148 | 0.0 | 0.0 | 0.00 | 0.55 | 0.55 | 88 | 1009.2 |
| 20260904031437 | 79 | 148 | 0.0 | 0.0 | 0.00 | 0.55 | 0.55 | 88 | 1009.2 |
| 20260904031212 | 79 | 148 | 0.0 | 0.0 | 0.00 | 0.55 | 0.55 | 88 | 1009.2 |
| 20260904031011 | 79 | 148 | 0.0 | 0.0 | 0.00 | 0.55 | 0.55 | 88 | 1009.1 |
| 20260904030911 | 79 | 148 | 0.0 | 0.0 | 0.00 | 0.55 | 0.55 | 88 | 1009.2 |
| 20260904030811 | 79 | 148 | 0.0 | 0.0 | 0.00 | 0.55 | 0.55 | 88 | 1009.2 |
| 20260904030615 | 79 | 148 | 0.0 | 0.0 | 0.00 | 0.55 | 0.55 | 88 | 1009.2 |
| 20260904030412 | 79 | 141 | 0.0 | 0.0 | 0.00 | 0.55 | 0.55 | 88 | 1009.2 |
| 20260904030220 | 79 | 123 | 0.0 | 0.0 | 0.00 | 0.55 | 0.55 | 88 | 1009.2 |
| 20260904030213 | 79 | 123 | 0.0 | 0.0 | 0.00 | 0.55 | 0.55 | 88 | 1009.2 |
| 20260904025911 | 79 | 123 | 0.0 | 0.0 | 0.00 | 0.55 | 0.55 | 88 | 1009.2 |
| 20260904025812 | 79 | 123 | 0.0 | 0.0 | 0.00 | 0.55 | 0.55 | 88 | 1009.1 |
| 20260904025611 | 79 | 123 | 0.0 | 0.0 | 0.00 | 0.55 | 0.55 | 88 | 1009.2 |
| 20260904025413 | 79 | 120 | 0.0 | 0.0 | 0.00 | 0.55 | 0.55 | 88 | 1009.1 |
| 20260904025211 | 79 | 120 | 0.0 | 0.0 | 0.00 | 0.55 | 0.55 | 88 | 1009.1 |
| 20260904025027 | 79 | 120 | 0.0 | 0.0 | 0.00 | 0.55 | 0.55 | 88 | 1009.2 |
| 20260904024909 | 79 | 120 | 0.0 | 0.0 | 0.00 | 0.55 | 0.55 | 88 | 1009.1 |
| 20260904024811 | 79 | 120 | 0.0 | 0.0 | 0.00 | 0.55 | 0.55 | 88 | 1009.2 |
| 20260904024712 | 79 | 121 | 0.0 | 0.0 | 0.00 | 0.55 | 0.55 | 88 | 1009.1 |
| 20260904024412 | 79 | 114 | 0.0 | 0.0 | 0.00 | 0.55 | 0.55 | 87 | 1009.1 |
| 20260904024211 | 79 | 111 | 0.0 | 0.0 | 0.00 | 0.55 | 0.55 | 87 | 1009.1 |
| 20260904024111 | 79 | 111 | 0.0 | 0.0 | 0.00 | 0.55 | 0.55 | 87 | 1009.1 |
| 20260904023904 | 79 | 111 | 0.0 | 0.0 | 0.00 | 0.55 | 0.55 | 87 | 1009.0 |
| 20260904023811 | 79 | 113 | 0.0 | 0.0 | 0.00 | 0.55 | 0.55 | 87 | 1009.0 |
| 20260904023702 | 79 | 111 | 0.0 | 0.0 | 0.00 | 0.55 | 0.55 | 87 | 1009.0 |
| 20260904023405 | 79 | 110 | 0.0 | 0.0 | 0.00 | 0.55 | 0.55 | 87 | 1009.0 |
| 20260904023204 | 79 | 110 | 0.0 | 0.0 | 0.00 | 0.55 | 0.55 | 87 | 1009.0 |
| 20260904023004 | 79 | 109 | 0.0 | 0.0 | 0.00 | 0.55 | 0.55 | 87 | 1009.0 |
| 20260904022902 | 79 | 109 | 0.0 | 0.0 | 0.00 | 0.55 | 0.55 | 87 | 1009.0 |
| 20260904022803 | 0 | 107 | 0.0 | 0.0 | 0.00 | 0.55 | 0.55 | 1009.0 | |
| 20260904022709 | 0 | 0.0 | 0.0 | 0.00 | 0.00 | 0.00 | 1009.1 | ||
| 20260904022420 | 0 | 0.0 | 0.0 | 0.00 | 0.00 | 0.00 | 1009.0 | ||
| 20260904022132 | 0 | 0.0 | 0.0 | 0.00 | 0.55 | 0.55 | |||
| 20260904022107 | 0 | 0.0 | 0.0 | 0.00 | 0.55 | 0.55 | |||
| 20260904021814 | 0 | 0.0 | 0.0 | 0.00 | 0.55 | 0.55 | |||
| 20260904021606 | 0 | 0.0 | 0.0 | 0.00 | 0.55 | 0.55 | |||
| 20260904021335 | 0 | 0.0 | 0.0 | 0.00 | 0.55 | 0.55 | |||
| 20260904021136 | 0 | 0.0 | 0.0 | 0.00 | 0.55 | 0.55 | |||
| 20260904021104 | 0 | 0.0 | 0.0 | 0.00 | 0.55 | 0.55 | |||
| 20260904021034 | 0 | 0.0 | 0.0 | 0.00 | 0.55 | 0.55 | 1008.8 | ||
| 20260904020738 | 0 | 0.0 | 0.0 | 0.00 | 0.55 | 0.55 | 1008.8 | ||
| 20260904020617 | 80 | 134 | 0.0 | 0.0 | 0.00 | 0.55 | 0.55 | 85 | 1008.8 |
| 20260904020609 | 0 | 0.0 | 0.0 | 0.00 | 0.55 | 0.55 | 1008.8 | ||
| 20260904020306 | 80 | 134 | 0.0 | 0.0 | 0.00 | 0.55 | 0.55 | 85 | 1008.8 |
| 20260904020216 | 80 | 134 | 0.0 | 0.0 | 0.00 | 0.55 | 0.55 | 85 | 1008.8 |
| 20260904020114 | 80 | 134 | 0.0 | 0.0 | 0.00 | 0.55 | 0.55 | 85 | 1008.8 |
| 20260904015902 | 80 | 134 | 0.0 | 0.0 | 0.00 | 0.55 | 0.55 | 85 | 1008.8 |
| 20260904015703 | 80 | 134 | 0.0 | 0.0 | 0.00 | 0.55 | 0.55 | 85 | 1008.8 |
| 20260904015601 | 80 | 134 | 0.0 | 0.0 | 0.00 | 0.55 | 0.55 | 85 | 1008.8 |
| 20260904015503 | 80 | 131 | 0.0 | 0.0 | 0.00 | 0.55 | 0.55 | 85 | 1008.8 |
| 20260904015448 | 80 | 131 | 0.0 | 0.0 | 0.00 | 0.55 | 0.55 | 85 | 1008.9 |
| 20260904015358 | 80 | 42 | 0.0 | 0.0 | 0.00 | 0.55 | 0.55 | 84 | 1008.8 |
| 20260904015316 | 80 | 42 | 0.0 | 0.0 | 0.00 | 0.55 | 0.55 | 84 | 1008.8 |
| 20260904014904 | 80 | 44 | 0.0 | 0.0 | 0.00 | 0.55 | 0.55 | 84 | 1008.9 |
| 20260904014804 | 80 | 44 | 0.0 | 0.0 | 0.00 | 0.55 | 0.55 | 84 | 1008.9 |
| 20260904014607 | 80 | 44 | 0.0 | 0.0 | 0.00 | 0.55 | 0.55 | 84 | 1008.9 |
| 20260904014501 | 80 | 45 | 0.0 | 0.0 | 0.00 | 0.55 | 0.55 | 84 | 1008.8 |
| 20260904014359 | 80 | 44 | 0.0 | 0.0 | 0.00 | 0.55 | 0.55 | 84 | 1008.9 |
| 20260904014349 | 80 | 44 | 0.0 | 0.0 | 0.00 | 0.55 | 0.55 | 84 | 1008.9 |
| 20260904014313 | 80 | 44 | 0.0 | 0.0 | 0.00 | 0.55 | 0.55 | 84 | 1008.9 |
| 20260904014000 | 80 | 42 | 0.0 | 0.0 | 0.00 | 0.00 | 0.00 | 84 | 1008.9 |
| 20260904013658 | 0 | 44 | 0.0 | 0.0 | 0.00 | 0.00 | 0.00 | 1008.8 | |
| 20260904013559 | 0 | 44 | 0.0 | 0.0 | 0.00 | 0.00 | 0.00 | 1008.9 | |
| 20260904013500 | 0 | 44 | 0.0 | 0.0 | 0.00 | 0.00 | 0.00 | 1008.9 | |
| 20260904013441 | 0 | 44 | 0.0 | 0.0 | 0.00 | 0.00 | 0.00 | 1008.8 | |
| 20260904013323 | 0 | 0.0 | 0.0 | 0.00 | 0.00 | 0.00 | 1008.8 | ||
| 20260904012704 | 0 | 0.0 | 0.0 | 0.00 | 0.55 | 0.55 | |||
| 20260904012505 | 0 | 0.0 | 0.0 | 0.00 | 0.55 | 0.55 | |||
| 20260904012454 | 0 | 0.0 | 0.0 | 0.00 | 0.55 | 0.55 | |||
| 20260904012433 | 0 | 0.0 | 0.0 | 0.00 | 0.55 | 0.55 | |||
| 20260904012033 | 0 | 0.0 | 0.0 | 0.00 | 0.55 | 0.55 | |||
| 20260904011832 | 0 | 0.0 | 0.0 | 0.00 | 0.55 | 0.55 | |||
| 20260904011706 | 0 | 0.0 | 0.0 | 0.00 | 0.55 | 0.55 | 1008.6 | ||
| 20260904011632 | 0 | 0.0 | 0.0 | 0.00 | 0.55 | 0.55 | 1008.6 | ||
| 20260904011431 | 0 | 0.0 | 0.0 | 0.00 | 0.55 | 0.55 | 1008.6 | ||
| 20260904011303 | 82 | 42 | 0.0 | 0.0 | 0.00 | 0.55 | 0.55 | 81 | 1008.6 |
| 20260904011134 | 82 | 42 | 0.0 | 0.0 | 0.00 | 0.55 | 0.55 | 81 | 1008.6 |
| 20260904011007 | 82 | 42 | 0.0 | 0.0 | 0.00 | 0.55 | 0.55 | 81 | 1008.6 |
| 20260904010904 | 82 | 42 | 0.0 | 0.0 | 0.00 | 0.55 | 0.55 | 81 | 1008.5 |
| 20260904010631 | 82 | 42 | 0.0 | 0.0 | 0.00 | 0.55 | 0.55 | 81 | 1008.6 |
| 20260904010535 | 82 | 42 | 0.0 | 0.0 | 0.00 | 0.55 | 0.55 | 81 | 1008.5 |
| 20260904010411 | 82 | 42 | 0.0 | 0.0 | 0.00 | 0.55 | 0.55 | 81 | 1008.5 |
| 20260904010108 | 82 | 42 | 0.0 | 0.0 | 0.00 | 0.55 | 0.55 | 81 | 1008.5 |
| 20260904005928 | 82 | 35 | 0.0 | 0.0 | 0.00 | 0.55 | 0.55 | 81 | 1008.5 |
| 20260904005826 | 82 | 35 | 0.0 | 0.0 | 0.00 | 0.55 | 0.55 | 81 | 1008.5 |
| 20260904005607 | 82 | 37 | 0.0 | 0.0 | 0.00 | 0.55 | 0.55 | 81 | 1008.4 |
| 20260904005524 | 82 | 35 | 0.0 | 0.0 | 0.00 | 0.55 | 0.55 | 81 | 1008.5 |
| 20260904005424 | 83 | 32 | 0.0 | 0.0 | 0.00 | 0.55 | 0.55 | 80 | 1008.4 |
| 20260904005107 | 83 | 31 | 0.0 | 0.0 | 0.00 | 0.55 | 0.55 | 80 | 1008.5 |
| 20260904004922 | 83 | 32 | 0.0 | 0.0 | 0.00 | 0.55 | 0.55 | 80 | 1008.5 |
| 20260904004713 | 83 | 32 | 0.0 | 0.0 | 0.00 | 0.55 | 0.55 | 80 | 1008.4 |
| 20260904004606 | 83 | 31 | 0.0 | 0.0 | 0.00 | 0.55 | 0.55 | 80 | 1008.5 |
| 20260904004511 | 83 | 31 | 0.0 | 0.0 | 0.00 | 0.55 | 0.55 | 79 | 1008.5 |
| 20260904004433 | 83 | 31 | 0.0 | 0.0 | 0.00 | 0.55 | 0.55 | 79 | 1008.5 |
| 20260904004107 | 83 | 31 | 0.0 | 0.0 | 0.00 | 0.55 | 0.55 | 79 | 1008.4 |
| 20260904003924 | 83 | 31 | 0.0 | 0.0 | 0.00 | 0.55 | 0.55 | 78 | 1008.5 |
| 20260904003914 | 83 | 30 | 0.0 | 0.0 | 0.00 | 0.55 | 0.55 | 79 | 1008.5 |
| 20260904003839 | 83 | 30 | 0.0 | 0.0 | 0.00 | 0.55 | 0.55 | 78 | 1008.5 |
| 20260904003511 | 84 | 31 | 0.0 | 0.9 | 0.00 | 0.55 | 0.55 | 78 | 1008.5 |
| 20260904003312 | 84 | 0 | 0.0 | 0.9 | 0.00 | 0.55 | 0.55 | 78 | 1008.5 |
| 20260904003215 | 84 | 42 | 0.0 | 0.9 | 0.00 | 0.55 | 0.55 | 78 | 1008.5 |
| 20260904003111 | 84 | 42 | 0.0 | 0.9 | 0.00 | 0.55 | 0.55 | 78 | 1008.5 |
| 20260904002912 | 84 | 42 | 0.0 | 0.9 | 0.00 | 0.55 | 0.55 | 78 | 1008.4 |
| 20260904002806 | 84 | 48 | 0.0 | 0.9 | 0.00 | 0.55 | 0.55 | 77 | 1008.4 |
| 20260904002611 | 84 | 48 | 0.0 | 0.9 | 0.00 | 0.55 | 0.55 | 77 | 1008.4 |
| 20260904002509 | 84 | 47 | 0.0 | 0.0 | 0.00 | 0.55 | 0.55 | 77 | 1008.5 |
| 20260904002307 | 84 | 49 | 0.0 | 0.0 | 0.00 | 0.55 | 0.55 | 77 | 1008.4 |
| 20260904002115 | 85 | 48 | 0.0 | 0.0 | 0.00 | 0.55 | 0.55 | 77 | 1008.4 |
| 20260904002107 | 85 | 48 | 0.0 | 0.0 | 0.00 | 0.55 | 0.55 | 77 | 1008.5 |
| 20260904001906 | 85 | 48 | 0.0 | 0.0 | 0.00 | 0.55 | 0.55 | 76 | 1008.5 |
| 20260904001804 | 85 | 48 | 0.0 | 0.0 | 0.00 | 0.55 | 0.55 | 76 | 1008.4 |
| 20260904001607 | 85 | 48 | 0.0 | 0.0 | 0.00 | 0.55 | 0.55 | 76 | 1008.5 |
| 20260904001506 | 85 | 47 | 0.0 | 0.0 | 0.00 | 0.55 | 0.55 | 76 | 1008.5 |
| 20260904001404 | 85 | 51 | 0.0 | 0.0 | 0.00 | 0.55 | 0.55 | 76 | 1008.5 |
| 20260904001113 | 85 | 54 | 0.0 | 0.0 | 0.00 | 0.55 | 0.55 | 75 | 1008.4 |
| 20260904001104 | 85 | 56 | 0.0 | 0.0 | 0.00 | 0.55 | 0.55 | 75 | 1008.4 |
| 20260904000906 | 86 | 55 | 0.0 | 0.0 | 0.00 | 0.55 | 0.55 | 75 | 1008.5 |
| 20260904000708 | 86 | 54 | 0.0 | 0.0 | 0.00 | 0.55 | 0.55 | 74 | 1008.3 |
| 20260904000606 | 86 | 55 | 0.0 | 0.0 | 0.00 | 0.55 | 0.55 | 74 | 1008.4 |
| 20260904000432 | 86 | 109 | 0.0 | 0.0 | 0.00 | 0.55 | 0.55 | 74 | 1008.4 |
| 20260904000330 | 86 | 175 | 0.0 | 0.9 | 0.00 | 0.55 | 0.55 | 74 | 1008.4 |
| 20260904000111 | 86 | 176 | 0.0 | 2.6 | 0.00 | 0.55 | 0.55 | 74 | 1008.5 |
| 20260904000045 | 86 | 178 | 0.0 | 2.6 | 0.00 | 0.55 | 0.55 | 74 | 1008.5 |
| 20260903235832 | 86 | 182 | 0.0 | 2.6 | 0.00 | 0.55 | 0.55 | 73 | 1008.5 |
| 20260903235619 | 87 | 176 | 0.0 | 2.6 | 0.00 | 0.55 | 0.55 | 73 | 1008.5 |
| 20260903235606 | 87 | 178 | 0.0 | 2.6 | 0.00 | 0.55 | 0.55 | 73 | 1008.5 |
| 20260903235513 | 87 | 178 | 0.0 | 2.6 | 0.00 | 0.55 | 0.55 | 73 | 1008.5 |
| 20260903235214 | 87 | 176 | 0.0 | 2.6 | 0.00 | 0.55 | 0.55 | 72 | 1008.5 |
| 20260903235115 | 87 | 173 | 0.0 | 2.6 | 0.00 | 0.55 | 0.55 | 72 | 1008.5 |
| 20260903235104 | 87 | 178 | 0.0 | 2.6 | 0.00 | 0.55 | 0.55 | 72 | 1008.5 |
| 20260903234911 | 87 | 168 | 0.0 | 2.6 | 0.00 | 0.55 | 0.55 | 72 | 1008.6 |
| 20260903234857 | 87 | 165 | 0.0 | 2.6 | 0.00 | 0.55 | 0.55 | 72 | 1008.5 |
| 20260903234824 | 87 | 169 | 0.0 | 2.6 | 0.00 | 0.55 | 0.55 | 72 | 1008.5 |
| 20260903234412 | 87 | 166 | 0.0 | 3.5 | 0.00 | 0.55 | 0.55 | 72 | 1008.6 |
| 20260903234213 | 87 | 166 | 0.0 | 3.5 | 0.00 | 0.55 | 0.55 | 72 | 1008.5 |
| 20260903234117 | 87 | 165 | 0.0 | 3.5 | 0.00 | 0.55 | 0.55 | 72 | 1008.6 |
| 20260903234104 | 87 | 168 | 0.0 | 3.5 | 0.00 | 0.55 | 0.55 | 72 | 1008.6 |
| 20260903233920 | 87 | 166 | 0.0 | 4.3 | 0.00 | 0.55 | 0.55 | 71 | 1008.6 |
| 20260903233911 | 87 | 165 | 0.0 | 4.3 | 0.00 | 0.55 | 0.55 | 71 | 1008.6 |
| 20260903233855 | 87 | 166 | 0.0 | 3.5 | 0.00 | 0.55 | 0.55 | 71 | 1008.6 |
| 20260903233410 | 87 | 202 | 0.0 | 4.3 | 0.00 | 0.55 | 0.55 | 71 | 1008.7 |
| 20260903233210 | 87 | 165 | 0.0 | 4.3 | 0.00 | 0.55 | 0.55 | 71 | 1008.6 |
| 20260903233105 | 87 | 169 | 0.0 | 4.3 | 0.00 | 0.55 | 0.55 | 71 | 1008.6 |
| 20260903233009 | 87 | 166 | 0.0 | 4.3 | 0.00 | 0.55 | 0.55 | 70 | 1008.6 |
| 20260903232911 | 87 | 169 | 0.0 | 7.8 | 0.00 | 0.55 | 0.55 | 71 | 1008.5 |
| 20260903232856 | 87 | 164 | 0.0 | 7.8 | 0.00 | 0.55 | 0.55 | 71 | 1008.6 |
| 20260903232409 | 87 | 171 | 0.0 | 7.8 | 0.00 | 0.55 | 0.55 | 71 | 1008.5 |
| 20260903232306 | 87 | 171 | 0.0 | 7.8 | 0.00 | 0.55 | 0.55 | 71 | 1008.3 |
| 20260903232102 | 87 | 169 | 0.0 | 7.8 | 0.00 | 0.55 | 0.55 | 70 | 1008.5 |
| 20260903232007 | 87 | 168 | 0.0 | 7.8 | 0.00 | 0.55 | 0.55 | 70 | 1008.3 |
| 20260903231807 | 87 | 188 | 0.0 | 3.5 | 0.00 | 0.55 | 0.55 | 70 | 1008.3 |
| 20260903231713 | 87 | 188 | 0.0 | 3.5 | 0.00 | 0.55 | 0.55 | 70 | 1008.3 |
| 20260903231601 | 87 | 188 | 0.0 | 3.5 | 0.00 | 0.55 | 0.55 | 70 | 1008.3 |
| 20260903231407 | 87 | 188 | 0.0 | 5.2 | 0.00 | 0.55 | 0.55 | 70 | 1008.2 |
| 20260903231205 | 87 | 188 | 0.0 | 5.2 | 0.00 | 0.55 | 0.55 | 70 | 1008.2 |
| 20260903231107 | 87 | 165 | 0.0 | 5.2 | 0.00 | 0.55 | 0.55 | 70 | 1008.2 |
| 20260903231004 | 87 | 168 | 0.0 | 5.2 | 0.00 | 0.55 | 0.55 | 71 | 1008.2 |
| 20260903230922 | 87 | 158 | 0.0 | 5.2 | 0.00 | 0.55 | 0.55 | 70 | 1008.1 |
| 20260903230905 | 87 | 158 | 0.0 | 5.2 | 0.00 | 0.55 | 0.55 | 70 | 1008.1 |
| 20260903230849 | 87 | 159 | 0.0 | 5.2 | 0.00 | 0.55 | 0.55 | 70 | 1008.0 |
| 20260903230404 | 87 | 52 | 0.0 | 4.3 | 0.00 | 0.55 | 0.55 | 71 | 1008.1 |
| 20260903230300 | 87 | 161 | 0.0 | 4.3 | 0.00 | 0.55 | 0.55 | 70 | 1008.1 |
| 20260903230057 | 87 | 37 | 0.0 | 4.3 | 0.00 | 0.55 | 0.55 | 70 | 1008.1 |
| 20260903230002 | 87 | 165 | 0.0 | 4.3 | 0.00 | 0.55 | 0.55 | 71 | 1008.1 |
| 20260903225859 | 87 | 169 | 0.0 | 8.7 | 0.00 | 0.55 | 0.55 | 71 | 1007.6 |
| 20260903225845 | 87 | 154 | 0.0 | 8.7 | 0.00 | 0.55 | 0.55 | 70 | 1007.9 |
| 20260903225546 | 87 | 171 | 0.0 | 8.7 | 0.00 | 0.55 | 0.55 | 71 | 1007.6 |
| 20260903225347 | 87 | 169 | 0.0 | 8.7 | 0.00 | 0.55 | 0.55 | 70 | 1007.6 |
| 20260903225244 | 87 | 94 | 0.0 | 8.7 | 0.00 | 0.55 | 0.55 | 70 | 1007.8 |
| 20260903225055 | 87 | 166 | 0.0 | 8.7 | 0.00 | 0.55 | 0.55 | 70 | 1007.9 |
| 20260903224943 | 87 | 183 | 0.0 | 8.7 | 0.00 | 0.55 | 0.55 | 69 | 1007.9 |
| 20260903224933 | 87 | 173 | 0.0 | 8.7 | 0.00 | 0.55 | 0.55 | 70 | 1007.9 |
| 20260903224843 | 87 | 183 | 0.0 | 8.7 | 0.00 | 0.55 | 0.55 | 70 | 1007.9 |
| 20260903224541 | 87 | 183 | 0.0 | 8.7 | 0.00 | 0.55 | 0.55 | 70 | 1007.9 |
| 20260903224342 | 87 | 220 | 0.0 | 8.7 | 0.00 | 0.55 | 0.55 | 69 | 1007.8 |
| 20260903224144 | 87 | 173 | 0.0 | 7.8 | 0.00 | 0.55 | 0.55 | 70 | 1007.8 |
| 20260903224052 | 87 | 165 | 0.0 | 7.8 | 0.00 | 0.55 | 0.55 | 70 | 1007.8 |
| 20260903223947 | 87 | 175 | 0.0 | 7.8 | 0.00 | 0.55 | 0.55 | 69 | 1007.5 |
| 20260903223940 | 87 | 188 | 0.0 | 7.8 | 0.00 | 0.55 | 0.55 | 70 | 1007.6 |
| 20260903223847 | 87 | 173 | 0.0 | 7.8 | 0.00 | 0.55 | 0.55 | 70 | 1007.5 |
| 20260903223831 | 87 | 13 | 0.0 | 7.8 | 0.00 | 0.55 | 0.55 | 70 | 1007.5 |
| 20260903223338 | 87 | 171 | 0.0 | 7.8 | 0.00 | 0.55 | 0.55 | 70 | 1007.6 |
| 20260903223238 | 87 | 20 | 0.0 | 6.1 | 0.00 | 0.55 | 0.55 | 70 | 1007.8 |
| 20260903223052 | 87 | 35 | 0.0 | 6.1 | 0.00 | 0.55 | 0.55 | 70 | 1007.8 |
| 20260903222935 | 87 | 168 | 0.0 | 6.1 | 0.00 | 0.55 | 0.55 | 69 | 1007.9 |
| 20260903222732 | 87 | 172 | 0.0 | 6.1 | 0.00 | 0.55 | 0.55 | 69 | 1007.8 |
| 20260903222551 | 87 | 120 | 0.0 | 6.1 | 0.00 | 0.55 | 0.55 | 69 | 1007.8 |
| 20260903222532 | 87 | 165 | 0.0 | 6.1 | 0.00 | 0.55 | 0.55 | 69 | 1007.8 |
| 20260903222333 | 87 | 189 | 0.0 | 9.6 | 0.00 | 0.55 | 0.55 | 69 | 1007.8 |
| 20260903222225 | 87 | 179 | 0.0 | 9.6 | 0.00 | 0.55 | 0.55 | 69 | 1007.8 |
| 20260903222048 | 87 | 178 | 0.0 | 9.6 | 0.00 | 0.55 | 0.55 | 69 | 1007.8 |
| 20260903221931 | 87 | 172 | 0.0 | 9.6 | 0.00 | 0.55 | 0.55 | 69 | 1007.9 |
| 20260903221826 | 87 | 166 | 0.0 | 9.6 | 0.00 | 0.55 | 0.55 | 69 | 1007.9 |
| 20260903221535 | 87 | 171 | 0.0 | 9.6 | 0.00 | 0.55 | 0.55 | 68 | 1007.9 |
| 20260903221531 | 87 | 169 | 0.0 | 9.6 | 0.00 | 0.55 | 0.55 | 68 | 1007.9 |
| 20260903221330 | 87 | 186 | 0.0 | 9.6 | 0.00 | 0.55 | 0.55 | 68 | 1008.0 |
| 20260903221132 | 87 | 178 | 0.0 | 6.1 | 0.00 | 0.55 | 0.55 | 68 | 1008.0 |
| 20260903221030 | 87 | 178 | 0.0 | 6.1 | 0.00 | 0.55 | 0.55 | 68 | 1008.1 |
| 20260903220932 | 87 | 178 | 0.0 | 6.1 | 0.00 | 0.55 | 0.55 | 68 | 1008.1 |
| 20260903220815 | 88 | 180 | 0.0 | 6.1 | 0.00 | 0.55 | 0.55 | 67 | 1008.0 |
| 20260903220520 | 88 | 165 | 0.0 | 5.2 | 0.00 | 0.55 | 0.55 | 69 | 1008.1 |
| 20260903220515 | 88 | 166 | 0.0 | 5.2 | 0.00 | 0.55 | 0.55 | 69 | 1008.1 |
| 20260903220411 | 88 | 202 | 0.0 | 5.2 | 0.00 | 0.55 | 0.55 | 67 | 1008.0 |
| 20260903220111 | 88 | 193 | 0.0 | 5.2 | 0.00 | 0.55 | 0.55 | 68 | 1008.0 |
| 20260903220012 | 88 | 189 | 0.0 | 5.2 | 0.00 | 0.55 | 0.55 | 68 | 1008.0 |
| 20260903215912 | 88 | 172 | 0.0 | 4.3 | 0.00 | 0.55 | 0.55 | 68 | 1008.0 |
| 20260903215711 | 88 | 1 | 0.0 | 4.3 | 0.00 | 0.55 | 0.55 | 69 | 1008.0 |
| 20260903215614 | 88 | 216 | 0.0 | 7.8 | 0.00 | 0.55 | 0.55 | 68 | 1008.1 |
| 20260903215515 | 88 | 216 | 0.0 | 7.8 | 0.00 | 0.55 | 0.55 | 68 | 1008.1 |
| 20260903215356 | 87 | 245 | 0.0 | 7.8 | 0.00 | 0.55 | 0.55 | 68 | 1008.1 |
| 20260903215324 | 87 | 128 | 0.0 | 7.8 | 0.00 | 0.55 | 0.55 | 69 | 1008.1 |
| 20260903215319 | 88 | 176 | 0.0 | 7.8 | 0.00 | 0.55 | 0.55 | 68 | 1008.1 |
| 20260903214913 | 87 | 178 | 0.0 | 8.7 | 0.00 | 0.55 | 0.55 | 69 | 1008.2 |
| 20260903214712 | 87 | 169 | 0.0 | 8.7 | 0.00 | 0.55 | 0.55 | 68 | 1008.4 |
| 20260903214512 | 87 | 168 | 0.0 | 8.7 | 0.00 | 0.55 | 0.55 | 68 | 1008.4 |
| 20260903214311 | 87 | 228 | 0.0 | 9.6 | 0.00 | 0.55 | 0.55 | 68 | 1008.4 |
| 20260903214213 | 87 | 159 | 0.0 | 9.6 | 0.00 | 0.55 | 0.55 | 67 | 1008.2 |
| 20260903214011 | 87 | 140 | 0.0 | 9.6 | 0.00 | 0.55 | 0.55 | 68 | 1008.2 |
| 20260903213912 | 87 | 165 | 0.0 | 9.6 | 0.00 | 0.55 | 0.55 | 68 | 1008.3 |
| 20260903213810 | 88 | 37 | 0.0 | 9.6 | 0.00 | 0.55 | 0.55 | 67 | 1008.3 |
| 20260903213514 | 88 | 145 | 0.0 | 9.6 | 0.00 | 0.55 | 0.55 | 67 | 1008.4 |
| 20260903213311 | 88 | 0 | 0.0 | 5.2 | 0.00 | 0.55 | 0.55 | 67 | 1008.5 |
| 20260903213111 | 88 | 200 | 0.0 | 5.2 | 0.00 | 0.55 | 0.55 | 69 | 1008.5 |
| 20260903213012 | 88 | 55 | 0.0 | 5.2 | 0.00 | 0.55 | 0.55 | 69 | 1008.5 |
| 20260903212911 | 87 | 175 | 0.0 | 6.1 | 0.00 | 0.55 | 0.55 | 69 | 1008.5 |
| 20260903212814 | 87 | 175 | 0.0 | 6.1 | 0.00 | 0.55 | 0.55 | 70 | 1008.3 |
| 20260903212511 | 87 | 186 | 0.0 | 6.1 | 0.00 | 0.55 | 0.55 | 69 | 1008.5 |
| 20260903212413 | 87 | 165 | 0.0 | 6.1 | 0.00 | 0.55 | 0.55 | 69 | 1008.5 |
| 20260903212111 | 87 | 21 | 0.0 | 8.7 | 0.00 | 0.55 | 0.55 | 69 | 1008.4 |
| 20260903212013 | 87 | 179 | 0.0 | 8.7 | 0.00 | 0.55 | 0.55 | 68 | 1008.4 |
| 20260903211912 | 87 | 171 | 0.0 | 8.7 | 0.00 | 0.55 | 0.55 | 69 | 1008.4 |
| 20260903211711 | 86 | 155 | 0.0 | 8.7 | 0.00 | 0.55 | 0.55 | 69 | 1008.4 |
| 20260903211512 | 87 | 141 | 0.0 | 8.7 | 0.00 | 0.55 | 0.55 | 68 | 1008.5 |
| 20260903211313 | 87 | 144 | 0.0 | 8.7 | 0.00 | 0.55 | 0.55 | 68 | 1008.5 |
| 20260903211210 | 87 | 176 | 0.0 | 8.7 | 0.00 | 0.55 | 0.55 | 67 | 1008.4 |
| 20260903211004 | 87 | 182 | 0.0 | 8.7 | 0.00 | 0.55 | 0.55 | 67 | 1008.5 |
| 20260903210912 | 88 | 154 | 0.0 | 8.7 | 0.00 | 0.55 | 0.55 | 66 | 1008.4 |
| 20260903210711 | 88 | 162 | 0.0 | 6.1 | 0.00 | 0.55 | 0.55 | 66 | 1008.4 |
| 20260903210528 | 89 | 200 | 0.0 | 6.1 | 0.00 | 0.55 | 0.55 | 69 | 1008.3 |
| 20260903210503 | 89 | 157 | 0.0 | 6.1 | 0.00 | 0.55 | 0.55 | 69 | 1008.3 |
| 20260903210341 | 88 | 173 | 0.0 | 6.1 | 0.00 | 0.55 | 0.55 | 68 | 1008.3 |
| 20260903210312 | 88 | 118 | 0.0 | 6.1 | 0.00 | 0.55 | 0.55 | 68 | 1008.3 |
| 20260903210254 | 88 | 173 | 0.0 | 6.1 | 0.00 | 0.55 | 0.55 | 68 | 1008.4 |
| 20260903205911 | 88 | 161 | 0.0 | 6.1 | 0.00 | 0.55 | 0.55 | 69 | 1008.4 |
| 20260903205814 | 87 | 165 | 0.0 | 4.3 | 0.00 | 0.55 | 0.55 | 68 | 1008.4 |
| 20260903205508 | 87 | 183 | 0.0 | 4.3 | 0.00 | 0.55 | 0.55 | 70 | 1008.4 |
| 20260903205314 | 86 | 166 | 0.0 | 0.0 | 0.00 | 0.55 | 0.55 | 70 | 1008.7 |
| 20260903205306 | 87 | 148 | 0.0 | 2.6 | 0.00 | 0.55 | 0.55 | 69 | 1008.5 |
| 20260903205238 | 86 | 175 | 0.0 | 0.0 | 0.00 | 0.55 | 0.55 | 69 | 1008.6 |
| 20260903204902 | 86 | 161 | 0.0 | 0.0 | 0.00 | 0.55 | 0.55 | 70 | 1008.7 |
| 20260903204759 | 86 | 162 | 0.0 | 0.0 | 0.00 | 0.55 | 0.55 | 71 | 1008.7 |
| 20260903204511 | 86 | 186 | 0.0 | 1.7 | 0.00 | 0.55 | 0.55 | 72 | 1008.9 |
| 20260903204456 | 86 | 158 | 0.0 | 1.7 | 0.00 | 0.55 | 0.55 | 72 | 1008.9 |
| 20260903204400 | 85 | 144 | 0.0 | 1.7 | 0.00 | 0.55 | 0.55 | 71 | 1008.8 |
| 20260903204310 | 85 | 195 | 0.0 | 1.7 | 0.00 | 0.55 | 0.55 | 71 | 1008.9 |
| 20260903204239 | 85 | 192 | 0.0 | 1.7 | 0.00 | 0.55 | 0.55 | 71 | 1008.8 |
| 20260903203906 | 85 | 137 | 0.0 | 1.7 | 0.00 | 0.55 | 0.55 | 70 | 1008.8 |
| 20260903203652 | 85 | 180 | 0.0 | 0.0 | 0.00 | 0.55 | 0.55 | 71 | 1008.9 |
| 20260903203500 | 85 | 196 | 0.0 | 0.0 | 0.00 | 0.55 | 0.55 | 72 | 1008.8 |
| 20260903203108 | 0 | 0.0 | 0.0 | 0.00 | 0.55 | 0.55 | |||
| 20260903202839 | 0 | 0.0 | 0.0 | 0.00 | 0.55 | 0.55 | |||
| 20260903202743 | 0 | 0.0 | 0.0 | 0.00 | 0.55 | 0.55 | |||
| 20260903202739 | 0 | 0.0 | 0.0 | 0.00 | 0.55 | 0.55 | |||
| 20260903202549 | 0 | 0.0 | 0.0 | 0.00 | 0.55 | 0.55 | |||
| 20260903202516 | 0 | 0.0 | 0.0 | 0.00 | 0.55 | 0.55 | |||
| 20260903202507 | 0 | 0.0 | 0.0 | 0.00 | 0.55 | 0.55 | |||
| 20260903202008 | 0 | 0.0 | 0.0 | 0.00 | 0.55 | 0.55 | 1008.8 | ||
| 20260903201808 | 0 | 0.0 | 0.0 | 0.00 | 0.55 | 0.55 | 1008.8 | ||
| 20260903201713 | 0 | 0.0 | 0.0 | 0.00 | 0.55 | 0.55 | 1008.8 | ||
| 20260903201607 | 86 | 185 | 0.0 | 2.6 | 0.00 | 0.55 | 0.55 | 69 | 1008.8 |
| 20260903201449 | 86 | 185 | 0.0 | 4.3 | 0.00 | 0.55 | 0.55 | 69 | 1008.8 |
| 20260903201439 | 86 | 185 | 0.0 | 4.3 | 0.00 | 0.55 | 0.55 | 69 | 1008.8 |
| 20260903200931 | 86 | 185 | 0.0 | 4.3 | 0.00 | 0.55 | 0.55 | 69 | 1008.8 |
| 20260903200830 | 86 | 185 | 0.0 | 4.3 | 0.00 | 0.55 | 0.55 | 69 | 1008.8 |
| 20260903200702 | 86 | 185 | 0.0 | 4.3 | 0.00 | 0.55 | 0.55 | 69 | 1008.8 |
| 20260903200507 | 86 | 30 | 0.0 | 5.2 | 0.00 | 0.55 | 0.55 | 68 | 1008.9 |
| 20260903200454 | 87 | 32 | 0.0 | 5.2 | 0.00 | 0.55 | 0.55 | 69 | 1009.0 |
| 20260903200432 | 87 | 25 | 0.0 | 5.2 | 0.00 | 0.55 | 0.55 | 70 | 1008.9 |
| 20260903200113 | 87 | 178 | 0.0 | 5.2 | 0.00 | 0.55 | 0.55 | 69 | 1009.0 |
| 20260903195906 | 87 | 178 | 0.0 | 10.4 | 0.00 | 0.55 | 0.55 | 69 | 1009.1 |
| 20260903195810 | 87 | 35 | 0.0 | 10.4 | 0.00 | 0.55 | 0.55 | 69 | 1009.0 |
| 20260903195706 | 87 | 35 | 0.0 | 10.4 | 0.00 | 0.55 | 0.55 | 69 | 1009.0 |
| 20260903195505 | 88 | 182 | 0.0 | 10.4 | 0.00 | 0.55 | 0.55 | 68 | 1009.0 |
| 20260903195454 | 87 | 190 | 0.0 | 10.4 | 0.00 | 0.55 | 0.55 | 67 | 1009.0 |
| 20260903195429 | 87 | 97 | 0.0 | 10.4 | 0.00 | 0.55 | 0.55 | 68 | 1009.1 |
| 20260903195104 | 87 | 179 | 0.0 | 10.4 | 0.00 | 0.55 | 0.55 | 66 | 1009.0 |
| 20260903194906 | 88 | 166 | 0.0 | 5.2 | 0.00 | 0.55 | 0.55 | 69 | 1009.0 |
| 20260903194813 | 88 | 103 | 0.0 | 6.1 | 0.00 | 0.55 | 0.55 | 70 | 1009.0 |
| 20260903194708 | 88 | 103 | 0.0 | 6.1 | 0.00 | 0.55 | 0.55 | 70 | 1009.0 |
| 20260903194531 | 87 | 27 | 0.0 | 6.1 | 0.00 | 0.55 | 0.55 | 72 | 1009.4 |
| 20260903194504 | 87 | 175 | 0.0 | 6.1 | 0.00 | 0.55 | 0.55 | 69 | 1009.2 |
| 20260903194450 | 87 | 0 | 0.0 | 6.1 | 0.00 | 0.55 | 0.55 | 70 | 1009.4 |
| 20260903194104 | 87 | 164 | 0.0 | 6.1 | 0.00 | 0.55 | 0.55 | 68 | 1009.4 |
| 20260903193904 | 86 | 169 | 0.0 | 8.7 | 0.00 | 0.55 | 0.55 | 70 | 1009.5 |
| 20260903193707 | 86 | 196 | 0.0 | 8.7 | 0.00 | 0.55 | 0.55 | 70 | 1009.4 |
| 20260903193508 | 86 | 189 | 0.0 | 8.7 | 0.00 | 0.55 | 0.55 | 68 | 1009.4 |
| 20260903193407 | 87 | 142 | 0.0 | 8.7 | 0.00 | 0.55 | 0.55 | 67 | 1009.4 |
| 20260903193204 | 87 | 169 | 0.0 | 8.7 | 0.00 | 0.55 | 0.55 | 66 | 1009.4 |
| 20260903193104 | 87 | 224 | 0.0 | 8.7 | 0.00 | 0.55 | 0.55 | 68 | 1009.4 |
| 20260903193004 | 88 | 145 | 0.0 | 6.1 | 0.00 | 0.55 | 0.55 | 70 | 1009.4 |
| 20260903192704 | 88 | 176 | 0.0 | 6.1 | 0.00 | 0.55 | 0.55 | 68 | 1009.3 |
| 20260903192505 | 87 | 252 | 0.0 | 8.7 | 0.00 | 0.55 | 0.55 | 70 | 1009.3 |
| 20260903192307 | 87 | 166 | 0.0 | 8.7 | 0.00 | 0.55 | 0.55 | 68 | 1009.3 |
| 20260903192205 | 87 | 168 | 0.0 | 8.7 | 0.00 | 0.55 | 0.55 | 69 | 1009.3 |
| 20260903192104 | 87 | 173 | 0.0 | 8.7 | 0.00 | 0.55 | 0.55 | 71 | 1009.3 |
| 20260903192006 | 87 | 182 | 0.0 | 8.7 | 0.00 | 0.55 | 0.55 | 68 | 1009.2 |
| 20260903191705 | 87 | 193 | 0.0 | 8.7 | 0.00 | 0.55 | 0.55 | 70 | 1009.2 |
| 20260903191612 | 87 | 217 | 0.0 | 7.8 | 0.00 | 0.55 | 0.55 | 69 | 1009.2 |
| 20260903191306 | 87 | 168 | 0.0 | 7.8 | 0.00 | 0.55 | 0.55 | 71 | 1009.3 |
| 20260903191204 | 87 | 159 | 0.0 | 7.8 | 0.00 | 0.55 | 0.55 | 72 | 1009.3 |
| 20260903191104 | 87 | 186 | 0.0 | 7.8 | 0.00 | 0.55 | 0.55 | 69 | 1009.3 |
| 20260903190904 | 87 | 68 | 0.0 | 7.8 | 0.01 | 0.55 | 0.55 | 70 | 1009.3 |
| 20260903190707 | 87 | 180 | 0.0 | 5.2 | 0.01 | 0.55 | 0.55 | 69 | 1009.4 |
| 20260903190504 | 87 | 195 | 0.0 | 5.2 | 0.01 | 0.55 | 0.55 | 70 | 1009.3 |
| 20260903190454 | 87 | 210 | 0.0 | 5.2 | 0.03 | 0.55 | 0.55 | 70 | 1009.4 |
| 20260903190429 | 87 | 234 | 0.0 | 5.2 | 0.01 | 0.55 | 0.55 | 70 | 1009.3 |
| 20260903190119 | 87 | 162 | 0.0 | 0.0 | 0.07 | 0.50 | 0.55 | 71 | 1009.3 |
| 20260903190107 | 87 | 173 | 0.0 | 5.2 | 0.04 | 0.55 | 0.55 | 70 | 1009.4 |
| 20260903185704 | 86 | 65 | 0.0 | 0.0 | 0.11 | 0.50 | 0.55 | 71 | 1009.2 |
| 20260903185506 | 86 | 166 | 0.0 | 0.0 | 0.20 | 0.50 | 0.55 | 70 | 1009.2 |
| 20260903185307 | 86 | 206 | 0.0 | 0.0 | 0.20 | 0.50 | 0.55 | 70 | 1009.2 |
| 20260903185203 | 86 | 179 | 0.0 | 0.0 | 0.20 | 0.50 | 0.55 | 69 | 1009.3 |
| 20260903185104 | 86 | 166 | 0.0 | 0.0 | 0.22 | 0.50 | 0.55 | 70 | 1009.3 |
| 20260903184904 | 86 | 221 | 0.0 | 0.0 | 0.24 | 0.50 | 0.55 | 70 | 1009.4 |
| 20260903184717 | 85 | 190 | 0.0 | 0.0 | 0.26 | 0.50 | 0.55 | 72 | 1009.4 |
| 20260903184706 | 86 | 178 | 0.0 | 0.0 | 0.25 | 0.50 | 0.55 | 73 | 1009.4 |
| 20260903184305 | 85 | 200 | 0.0 | 0.0 | 0.30 | 0.50 | 0.55 | 72 | 1009.4 |
| 20260903184203 | 85 | 168 | 0.0 | 0.0 | 0.31 | 0.50 | 0.55 | 72 | 1009.4 |
| 20260903184106 | 85 | 186 | 0.0 | 0.0 | 0.31 | 0.50 | 0.55 | 73 | 1009.4 |
| 20260903183906 | 85 | 159 | 0.0 | 0.0 | 0.31 | 0.50 | 0.55 | 73 | 1009.4 |
| 20260903183704 | 85 | 176 | 0.0 | 0.0 | 0.31 | 0.50 | 0.55 | 75 | 1009.4 |
| 20260903183505 | 85 | 220 | 0.0 | 0.0 | 0.31 | 0.50 | 0.55 | 76 | 1009.4 |
| 20260903183314 | 84 | 157 | 0.0 | 0.0 | 0.31 | 0.50 | 0.55 | 76 | 1009.4 |
| 20260903183306 | 84 | 154 | 0.0 | 0.0 | 0.31 | 0.50 | 0.55 | 75 | 1009.5 |
| 20260903183206 | 84 | 203 | 0.0 | 0.0 | 0.31 | 0.50 | 0.55 | 76 | 1009.5 |
| 20260903182905 | 84 | 200 | 0.0 | 0.0 | 0.31 | 0.50 | 0.55 | 78 | 1009.5 |
| 20260903182704 | 83 | 154 | 0.0 | 0.0 | 0.31 | 0.50 | 0.55 | 81 | 1009.4 |
| 20260903182505 | 83 | 185 | 0.0 | 0.0 | 0.31 | 0.50 | 0.55 | 84 | 1009.4 |
| 20260903182307 | 82 | 196 | 0.0 | 0.0 | 0.31 | 0.50 | 0.55 | 82 | 1009.4 |
| 20260903182208 | 82 | 162 | 0.0 | 0.0 | 0.31 | 0.50 | 0.55 | 84 | 1009.5 |
| 20260903182203 | 82 | 159 | 0.0 | 0.0 | 0.31 | 0.50 | 0.55 | 84 | 1009.4 |
| 20260903181906 | 80 | 176 | 0.0 | 0.0 | 0.31 | 0.50 | 0.55 | 85 | 1009.5 |
| 20260903181704 | 80 | 176 | 0.0 | 0.0 | 0.31 | 0.50 | 0.55 | 87 | 1009.5 |
| 20260903181504 | 79 | 171 | 0.0 | 0.0 | 0.31 | 0.50 | 0.55 | 86 | 1009.5 |
| 20260903181404 | 78 | 169 | 0.0 | 0.0 | 0.31 | 0.50 | 0.55 | 87 | 1009.6 |
| 20260903181203 | 78 | 169 | 0.0 | 0.0 | 0.31 | 0.50 | 0.55 | 87 | 1009.7 |
| 20260903181104 | 77 | 147 | 0.0 | 0.0 | 0.31 | 0.50 | 0.55 | 87 | 1009.6 |
| 20260903180905 | 77 | 154 | 0.0 | 0.0 | 0.30 | 0.50 | 0.54 | 88 | 1009.8 |
| 20260903180809 | 77 | 164 | 0.0 | 0.0 | 0.30 | 0.50 | 0.54 | 88 | 1009.7 |
| 20260903180704 | 77 | 164 | 0.0 | 0.0 | 0.30 | 0.50 | 0.54 | 88 | 1009.7 |
| 20260903180504 | 77 | 193 | 0.0 | 0.0 | 0.30 | 0.50 | 0.54 | 88 | 1009.9 |
| 20260903180308 | 78 | 196 | 0.0 | 0.0 | 0.30 | 0.50 | 0.52 | 88 | 1009.8 |
| 20260903180203 | 78 | 25 | 0.0 | 0.0 | 0.28 | 0.50 | 0.51 | 88 | 1009.9 |
| 20260903180104 | 78 | 27 | 0.0 | 0.0 | 0.27 | 0.50 | 0.50 | 87 | 1009.8 |
| 20260903180005 | 78 | 180 | 0.0 | 0.0 | 0.24 | 0.24 | 0.29 | 87 | 1009.7 |
| 20260903175704 | 78 | 178 | 0.0 | 0.0 | 0.20 | 0.24 | 0.25 | 86 | 1009.8 |
| 20260903175506 | 79 | 157 | 0.0 | 0.0 | 0.12 | 0.24 | 0.16 | 85 | 1009.6 |
| 20260903175405 | 79 | 157 | 0.0 | 0.0 | 0.12 | 0.24 | 0.16 | 85 | 1009.5 |
| 20260903175203 | 79 | 157 | 0.0 | 0.0 | 0.13 | 0.24 | 0.16 | 85 | 1009.4 |
| 20260903175105 | 79 | 196 | 0.0 | 0.0 | 0.11 | 0.24 | 0.15 | 85 | 1009.4 |
| 20260903174905 | 79 | 207 | 0.0 | 0.0 | 0.09 | 0.24 | 0.13 | 84 | 1009.2 |
| 20260903174704 | 80 | 189 | 0.0 | 0.0 | 0.08 | 0.24 | 0.12 | 84 | 1009.1 |
| 20260903174604 | 80 | 157 | 0.0 | 0.0 | 0.07 | 0.24 | 0.11 | 84 | 1009.2 |
| 20260903174307 | 80 | 168 | 0.0 | 0.0 | 0.03 | 0.24 | 0.07 | 84 | 1009.4 |
| 20260903174203 | 80 | 182 | 0.0 | 0.0 | 0.02 | 0.24 | 0.07 | 84 | 1009.3 |
| 20260903174104 | 81 | 41 | 0.0 | 0.0 | 0.03 | 0.24 | 0.07 | 85 | 1009.2 |
| 20260903173904 | 81 | 171 | 0.0 | 0.0 | 0.07 | 0.24 | 0.07 | 85 | 1009.4 |
| 20260903173705 | 81 | 169 | 0.0 | 0.0 | 0.08 | 0.24 | 0.07 | 85 | 1009.7 |
| 20260903173606 | 81 | 166 | 0.0 | 0.0 | 0.09 | 0.24 | 0.07 | 87 | 1009.7 |
| 20260903173304 | 81 | 161 | 0.0 | 0.0 | 0.11 | 0.24 | 0.07 | 87 | 1009.7 |
| 20260903173210 | 82 | 110 | 0.0 | 0.0 | 0.13 | 0.24 | 0.07 | 90 | 1009.8 |
| 20260903173203 | 82 | 149 | 0.0 | 0.0 | 0.13 | 0.24 | 0.07 | 89 | 1009.8 |
| 20260903172906 | 81 | 111 | 0.0 | 0.0 | 0.14 | 0.24 | 0.07 | 90 | 1009.7 |
| 20260903172705 | 80 | 107 | 0.0 | 0.0 | 0.15 | 0.24 | 0.07 | 91 | 1009.8 |
| 20260903172506 | 80 | 47 | 0.0 | 0.0 | 0.16 | 0.24 | 0.07 | 93 | 1009.7 |
| 20260903172312 | 79 | 45 | 0.0 | 0.0 | 0.17 | 0.24 | 0.07 | 92 | 1009.7 |
| 20260903172211 | 79 | 47 | 0.0 | 0.0 | 0.17 | 0.24 | 0.07 | 92 | 1009.7 |
| 20260903172204 | 79 | 45 | 0.0 | 0.0 | 0.17 | 0.24 | 0.07 | 93 | 1009.8 |
| 20260903171904 | 78 | 47 | 0.0 | 0.0 | 0.17 | 0.24 | 0.07 | 93 | 1009.8 |
| 20260903171807 | 78 | 47 | 0.0 | 0.0 | 0.17 | 0.24 | 0.07 | 94 | 1009.8 |
| 20260903171704 | 78 | 47 | 0.0 | 0.0 | 0.17 | 0.24 | 0.07 | 94 | 1009.8 |
| 20260903171504 | 78 | 45 | 0.0 | 0.0 | 0.17 | 0.24 | 0.07 | 94 | 1009.9 |
| 20260903171304 | 77 | 39 | 0.0 | 0.0 | 0.17 | 0.24 | 0.07 | 94 | 1009.9 |
| 20260903171205 | 76 | 39 | 0.0 | 0.0 | 0.17 | 0.24 | 0.07 | 94 | 1010.0 |
| 20260903171104 | 76 | 41 | 0.0 | 0.0 | 0.17 | 0.24 | 0.07 | 94 | 1010.0 |
| 20260903170905 | 77 | 39 | 0.0 | 0.0 | 0.17 | 0.24 | 0.07 | 95 | 1009.9 |
| 20260903170808 | 76 | 39 | 0.0 | 0.0 | 0.17 | 0.24 | 0.07 | 94 | 1010.1 |
| 20260903170704 | 76 | 39 | 0.0 | 0.0 | 0.17 | 0.24 | 0.07 | 94 | 1010.1 |
| 20260903170509 | 76 | 41 | 0.0 | 0.0 | 0.17 | 0.24 | 0.24 | 92 | 1010.2 |
| 20260903170305 | 76 | 41 | 0.0 | 0.0 | 0.17 | 0.24 | 0.24 | 92 | 1010.1 |
| 20260903170205 | 76 | 41 | 0.0 | 0.0 | 0.17 | 0.24 | 0.24 | 92 | 1010.2 |
| 20260903170106 | 76 | 41 | 0.0 | 0.0 | 0.17 | 0.24 | 0.24 | 92 | 1010.2 |
| 20260903165930 | 76 | 41 | 0.0 | 0.0 | 0.17 | 0.07 | 0.24 | 92 | 1010.3 |
| 20260903165734 | 76 | 41 | 0.0 | 0.0 | 0.17 | 0.07 | 0.24 | 91 | 1010.4 |
| 20260903165703 | 76 | 41 | 0.0 | 0.0 | 0.17 | 0.07 | 0.24 | 92 | 1010.3 |
| 20260903165507 | 77 | 41 | 0.0 | 0.0 | 0.15 | 0.07 | 0.22 | 90 | 1010.4 |
| 20260903165454 | 76 | 41 | 0.0 | 0.0 | 0.16 | 0.07 | 0.23 | 91 | 1010.5 |
| 20260903165422 | 76 | 41 | 0.0 | 0.0 | 0.15 | 0.07 | 0.22 | 91 | 1010.4 |
| 20260903165034 | 77 | 44 | 0.0 | 0.0 | 0.15 | 0.07 | 0.22 | 90 | 1010.3 |
| 20260903164834 | 77 | 44 | 0.0 | 0.0 | 0.15 | 0.07 | 0.22 | 90 | 1010.2 |
| 20260903164700 | 77 | 51 | 0.0 | 0.0 | 0.15 | 0.07 | 0.22 | 89 | 1010.1 |
| 20260903164608 | 77 | 52 | 0.0 | 0.0 | 0.15 | 0.07 | 0.22 | 89 | 1010.2 |
| 20260903164504 | 77 | 93 | 0.0 | 0.0 | 0.15 | 0.07 | 0.22 | 89 | 1010.1 |
| 20260903164309 | 77 | 47 | 0.0 | 0.0 | 0.15 | 0.07 | 0.21 | 88 | 1010.1 |
| 20260903164159 | 78 | 47 | 0.0 | 0.0 | 0.15 | 0.07 | 0.21 | 88 | 1010.1 |
| 20260903164008 | 78 | 51 | 0.0 | 0.0 | 0.13 | 0.07 | 0.20 | 88 | 1010.2 |
| 20260903163808 | 78 | 32 | 0.0 | 0.0 | 0.10 | 0.07 | 0.16 | 87 | 1010.2 |
| 20260903163700 | 78 | 37 | 0.0 | 0.0 | 0.09 | 0.07 | 0.16 | 87 | 1010.2 |
| 20260903163605 | 78 | 8 | 0.0 | 0.0 | 0.09 | 0.07 | 0.15 | 86 | 1010.2 |
| 20260903163405 | 79 | 120 | 0.0 | 0.0 | 0.07 | 0.07 | 0.13 | 86 | 1010.3 |
| 20260903163207 | 79 | 133 | 0.0 | 0.0 | 0.04 | 0.07 | 0.11 | 86 | 1010.5 |
| 20260903163159 | 79 | 133 | 0.0 | 0.0 | 0.04 | 0.07 | 0.11 | 86 | 1010.5 |
| 20260903163106 | 79 | 133 | 0.0 | 0.0 | 0.03 | 0.07 | 0.10 | 86 | 1010.5 |
| 20260903162804 | 79 | 133 | 0.0 | 0.0 | 0.03 | 0.07 | 0.09 | 86 | 1010.4 |
| 20260903162658 | 79 | 131 | 0.0 | 0.0 | 0.02 | 0.07 | 0.09 | 85 | 1010.5 |
| 20260903162611 | 79 | 131 | 0.0 | 0.0 | 0.02 | 0.07 | 0.08 | 85 | 1010.5 |
| 20260903162403 | 79 | 131 | 0.0 | 0.0 | 0.01 | 0.07 | 0.07 | 85 | 1010.5 |
| 20260903162206 | 80 | 134 | 0.0 | 0.0 | 0.00 | 0.07 | 0.07 | 84 | 1010.2 |
| 20260903162201 | 80 | 133 | 0.0 | 0.0 | 0.00 | 0.07 | 0.07 | 84 | 1010.2 |
| 20260903162002 | 80 | 155 | 0.0 | 0.0 | 0.00 | 0.07 | 0.07 | 84 | 1010.2 |
| 20260903161805 | 80 | 155 | 0.0 | 0.0 | 0.00 | 0.07 | 0.07 | 84 | 1010.2 |
| 20260903161706 | 80 | 157 | 0.0 | 0.0 | 0.00 | 0.07 | 0.07 | 84 | 1010.3 |
| 20260903161702 | 80 | 155 | 0.0 | 0.0 | 0.00 | 0.07 | 0.07 | 84 | 1010.3 |
| 20260903161500 | 80 | 155 | 0.0 | 0.0 | 0.00 | 0.07 | 0.07 | 84 | 1010.3 |
| 20260903161206 | 80 | 157 | 0.0 | 0.0 | 0.00 | 0.07 | 0.07 | 84 | 1010.2 |
| 20260903161201 | 80 | 157 | 0.0 | 0.0 | 0.00 | 0.07 | 0.07 | 84 | 1010.3 |
| 20260903161002 | 80 | 155 | 0.0 | 0.0 | 0.00 | 0.07 | 0.07 | 84 | 1010.3 |
| 20260903160951 | 80 | 158 | 0.0 | 0.0 | 0.00 | 0.07 | 0.07 | 84 | 1010.4 |
| 20260903160923 | 80 | 157 | 0.0 | 0.0 | 0.00 | 0.07 | 0.07 | 84 | 1010.3 |
| 20260903160617 | 80 | 157 | 0.0 | 0.0 | 0.00 | 0.07 | 0.07 | 84 | 1010.4 |
| 20260903160408 | 79 | 155 | 0.0 | 0.0 | 0.00 | 0.07 | 0.07 | 84 | 1010.4 |
| 20260903160306 | 80 | 20 | 0.0 | 0.0 | 0.00 | 0.07 | 0.07 | 86 | 1010.4 |
| 20260903160151 | 80 | 20 | 0.0 | 0.0 | 0.00 | 0.07 | 0.07 | 86 | 1010.4 |
| 20260903160111 | 79 | 20 | 0.0 | 0.0 | 0.00 | 0.07 | 0.07 | 86 | 1010.3 |
| 20260903155935 | 78 | 161 | 0.0 | 0.0 | 0.00 | 0.07 | 0.07 | 86 | 1010.3 |
| 20260903155916 | 78 | 35 | 0.0 | 0.0 | 0.00 | 0.07 | 0.07 | 86 | 1010.3 |
| 20260903155553 | 78 | 94 | 0.0 | 0.0 | 0.00 | 0.07 | 0.07 | 85 | 1010.4 |
| 20260903155351 | 78 | 16 | 0.0 | 0.0 | 0.00 | 0.07 | 0.07 | 86 | 1010.3 |
| 20260903155151 | 78 | 0 | 0.0 | 0.0 | 0.00 | 0.07 | 0.07 | 85 | 1010.4 |
| 20260903155107 | 78 | 166 | 0.0 | 0.0 | 0.00 | 0.07 | 0.07 | 85 | 1010.2 |
| 20260903155059 | 78 | 166 | 0.0 | 0.0 | 0.00 | 0.07 | 0.07 | 85 | 1010.2 |
| 20260903155042 | 78 | 331 | 0.0 | 0.0 | 0.00 | 0.07 | 0.07 | 85 | 1010.3 |
| 20260903154643 | 78 | 155 | 0.0 | 0.0 | 0.00 | 0.07 | 0.07 | 85 | 1010.3 |
| 20260903154348 | 78 | 157 | 0.0 | 0.0 | 0.00 | 0.07 | 0.07 | 85 | 1010.2 |
| 20260903154146 | 78 | 128 | 0.0 | 0.0 | 0.00 | 0.07 | 0.07 | 85 | 1010.3 |
| 20260903154014 | 78 | 38 | 0.0 | 0.0 | 0.00 | 0.07 | 0.07 | 86 | 1010.2 |
| 20260903153948 | 78 | 137 | 0.0 | 0.0 | 0.00 | 0.07 | 0.07 | 86 | 1010.3 |
| 20260903153943 | 78 | 37 | 0.0 | 0.0 | 0.00 | 0.07 | 0.07 | 86 | 1010.3 |
| 20260903153544 | 78 | 37 | 0.0 | 0.0 | 0.00 | 0.07 | 0.07 | 86 | 1010.2 |
| 20260903153443 | 78 | 35 | 0.0 | 0.0 | 0.00 | 0.07 | 0.07 | 86 | 1010.2 |
| 20260903153140 | 78 | 35 | 0.0 | 0.0 | 0.00 | 0.07 | 0.07 | 86 | 1010.3 |
| 20260903153134 | 78 | 38 | 0.0 | 0.0 | 0.00 | 0.07 | 0.07 | 86 | 1010.3 |
| 20260903152938 | 78 | 144 | 0.0 | 0.0 | 0.00 | 0.07 | 0.07 | 87 | 1010.3 |
| 20260903152740 | 78 | 142 | 0.0 | 0.0 | 0.00 | 0.07 | 0.07 | 87 | 1010.2 |
| 20260903152633 | 77 | 142 | 0.0 | 0.0 | 0.00 | 0.07 | 0.07 | 87 | 1010.2 |
| 20260903152536 | 77 | 145 | 0.0 | 0.0 | 0.00 | 0.07 | 0.07 | 87 | 1010.2 |
| 20260903152445 | 77 | 37 | 0.0 | 0.0 | 0.00 | 0.07 | 0.07 | 88 | 1010.2 |
| 20260903152134 | 77 | 42 | 0.0 | 0.0 | 0.00 | 0.07 | 0.07 | 89 | 1010.2 |
| 20260903152030 | 77 | 41 | 0.0 | 0.0 | 0.00 | 0.07 | 0.07 | 89 | 1010.3 |
| 20260903151738 | 77 | 42 | 0.0 | 0.0 | 0.00 | 0.07 | 0.07 | 89 | 1010.2 |
| 20260903151631 | 76 | 42 | 0.0 | 0.0 | 0.00 | 0.07 | 0.07 | 88 | 1010.2 |
| 20260903151532 | 76 | 41 | 0.0 | 0.0 | 0.00 | 0.07 | 0.07 | 88 | 1010.2 |
| 20260903151350 | 76 | 49 | 0.0 | 0.0 | 0.00 | 0.07 | 0.07 | 88 | 1010.3 |
| 20260903151135 | 76 | 44 | 0.0 | 0.0 | 0.00 | 0.07 | 0.07 | 88 | 1010.3 |
| 20260903151048 | 76 | 44 | 0.0 | 0.0 | 0.00 | 0.07 | 0.07 | 88 | 1010.3 |
| 20260903150742 | 76 | 55 | 0.0 | 0.0 | 0.00 | 0.07 | 0.07 | 88 | 1010.3 |
| 20260903150623 | 76 | 54 | 0.0 | 0.0 | 0.00 | 0.07 | 0.07 | 88 | 1010.3 |
| 20260903150531 | 76 | 54 | 0.0 | 0.0 | 0.00 | 0.07 | 0.07 | 88 | 1010.3 |
| 20260903150446 | 76 | 39 | 0.0 | 0.0 | 0.00 | 0.07 | 0.07 | 88 | 1010.3 |
| 20260903150130 | 76 | 41 | 0.0 | 0.0 | 0.00 | 0.07 | 0.07 | 87 | 1010.4 |
| 20260903150124 | 76 | 39 | 0.0 | 0.0 | 0.00 | 0.07 | 0.07 | 87 | 1010.4 |
| 20260903145930 | 76 | 42 | 0.0 | 0.0 | 0.00 | 0.07 | 0.07 | 87 | 1010.3 |
| 20260903145730 | 76 | 44 | 0.0 | 0.0 | 0.00 | 0.07 | 0.07 | 87 | 1010.3 |
| 20260903145621 | 76 | 42 | 0.0 | 0.0 | 0.00 | 0.07 | 0.07 | 87 | 1010.3 |
| 20260903145532 | 76 | 41 | 0.0 | 0.0 | 0.00 | 0.07 | 0.07 | 87 | 1010.3 |
| 20260903145430 | 76 | 42 | 0.0 | 0.0 | 0.00 | 0.07 | 0.07 | 87 | 1010.2 |
| 20260903145131 | 76 | 41 | 0.0 | 0.0 | 0.00 | 0.07 | 0.07 | 87 | 1010.2 |
| 20260903145120 | 76 | 42 | 0.0 | 0.0 | 0.00 | 0.07 | 0.07 | 87 | 1010.2 |
| 20260903145029 | 76 | 42 | 0.0 | 0.0 | 0.00 | 0.07 | 0.07 | 87 | 1010.1 |
| 20260903144729 | 76 | 41 | 0.0 | 0.0 | 0.00 | 0.07 | 0.07 | 87 | 1010.1 |
| 20260903144621 | 76 | 38 | 0.0 | 0.0 | 0.00 | 0.07 | 0.07 | 87 | 1010.2 |
| 20260903144529 | 76 | 41 | 0.0 | 0.0 | 0.00 | 0.07 | 0.07 | 87 | 1010.2 |
| 20260903144326 | 76 | 38 | 0.0 | 0.0 | 0.00 | 0.07 | 0.07 | 86 | 1010.3 |
| 20260903144126 | 76 | 38 | 0.0 | 0.0 | 0.00 | 0.07 | 0.07 | 86 | 1010.3 |
| 20260903144118 | 76 | 37 | 0.0 | 0.0 | 0.00 | 0.07 | 0.07 | 86 | 1010.3 |
| 20260903144024 | 76 | 35 | 0.0 | 0.0 | 0.00 | 0.07 | 0.07 | 86 | 1010.2 |
| 20260903143721 | 76 | 38 | 0.0 | 0.0 | 0.00 | 0.07 | 0.07 | 86 | 1010.1 |
| 20260903143624 | 76 | 23 | 0.0 | 0.0 | 0.00 | 0.07 | 0.07 | 86 | 1010.0 |
| 20260903143617 | 76 | 37 | 0.0 | 0.0 | 0.00 | 0.07 | 0.07 | 86 | 1010.1 |
| 20260903143322 | 76 | 31 | 0.0 | 0.0 | 0.00 | 0.07 | 0.07 | 86 | 1010.1 |
| 20260903143119 | 76 | 27 | 0.0 | 0.0 | 0.00 | 0.07 | 0.07 | 86 | 1010.2 |
| 20260903142920 | 76 | 25 | 0.0 | 0.0 | 0.00 | 0.07 | 0.07 | 86 | 1010.2 |
| 20260903142719 | 76 | 25 | 0.0 | 0.0 | 0.00 | 0.07 | 0.07 | 86 | 1010.1 |
| 20260903142622 | 76 | 48 | 0.0 | 0.0 | 0.00 | 0.07 | 0.07 | 86 | 1010.0 |
| 20260903142617 | 76 | 27 | 0.0 | 0.0 | 0.00 | 0.07 | 0.07 | 86 | 1010.0 |
| 20260903142421 | 76 | 39 | 0.0 | 0.0 | 0.00 | 0.07 | 0.07 | 87 | 1009.9 |
| 20260903142120 | 76 | 32 | 0.0 | 0.0 | 0.00 | 0.07 | 0.07 | 87 | 1010.0 |
| 20260903142115 | 76 | 34 | 0.0 | 0.0 | 0.00 | 0.07 | 0.07 | 87 | 1010.0 |
| 20260903142013 | 76 | 32 | 0.0 | 0.0 | 0.00 | 0.07 | 0.07 | 87 | 1010.2 |
| 20260903141718 | 76 | 34 | 0.0 | 0.0 | 0.00 | 0.07 | 0.07 | 87 | 1010.0 |
| 20260903141615 | 76 | 62 | 0.0 | 0.0 | 0.00 | 0.07 | 0.07 | 87 | 1010.1 |
| 20260903141520 | 76 | 61 | 0.0 | 0.0 | 0.00 | 0.07 | 0.07 | 88 | 1010.1 |
| 20260903141416 | 76 | 31 | 0.0 | 0.0 | 0.00 | 0.07 | 0.07 | 88 | 1010.1 |
| 20260903141357 | 76 | 45 | 0.0 | 0.0 | 0.00 | 0.07 | 0.07 | 88 | 1010.1 |
| 20260903141105 | 76 | 31 | 0.0 | 0.0 | 0.00 | 0.07 | 0.07 | 88 | 1010.1 |
| 20260903141003 | 75 | 51 | 0.0 | 0.0 | 0.00 | 0.07 | 0.07 | 88 | 1010.1 |
| 20260903140705 | 75 | 49 | 0.0 | 0.0 | 0.00 | 0.07 | 0.07 | 87 | 1010.2 |
| 20260903140614 | 75 | 49 | 0.0 | 0.0 | 0.00 | 0.07 | 0.07 | 87 | 1010.2 |
| 20260903140607 | 75 | 51 | 0.0 | 0.0 | 0.00 | 0.07 | 0.07 | 87 | 1010.2 |
| 20260903140302 | 75 | 51 | 0.0 | 0.0 | 0.00 | 0.07 | 0.07 | 87 | 1010.3 |
| 20260903140121 | 75 | 48 | 0.0 | 0.0 | 0.00 | 0.07 | 0.07 | 87 | 1010.3 |
| 20260903140115 | 75 | 49 | 0.0 | 0.0 | 0.00 | 0.07 | 0.07 | 87 | 1010.3 |
| 20260903135902 | 75 | 49 | 0.0 | 0.0 | 0.00 | 0.07 | 0.07 | 87 | 1010.3 |
| 20260903135702 | 75 | 51 | 0.0 | 0.0 | 0.00 | 0.07 | 0.07 | 87 | 1010.4 |
| 20260903135612 | 75 | 49 | 0.0 | 0.0 | 0.00 | 0.07 | 0.07 | 87 | 1010.3 |
| 20260903135601 | 75 | 49 | 0.0 | 0.0 | 0.00 | 0.07 | 0.07 | 87 | 1010.3 |
| 20260903135306 | 76 | 49 | 0.0 | 0.0 | 0.00 | 0.07 | 0.07 | 88 | 1010.3 |
| 20260903135201 | 76 | 51 | 0.0 | 0.0 | 0.00 | 0.07 | 0.07 | 88 | 1010.1 |
| 20260903135112 | 76 | 51 | 0.0 | 0.0 | 0.00 | 0.07 | 0.07 | 88 | 1010.1 |
| 20260903134902 | 76 | 51 | 0.0 | 0.0 | 0.00 | 0.07 | 0.07 | 87 | 1010.2 |
| 20260903134704 | 76 | 48 | 0.0 | 0.0 | 0.00 | 0.07 | 0.07 | 87 | 1010.2 |
| 20260903134612 | 76 | 35 | 0.0 | 0.0 | 0.00 | 0.07 | 0.07 | 87 | 1010.1 |
| 20260903134505 | 76 | 34 | 0.0 | 0.0 | 0.00 | 0.07 | 0.07 | 87 | 1010.2 |
| 20260903134305 | 76 | 31 | 0.0 | 0.0 | 0.00 | 0.07 | 0.07 | 88 | 1010.1 |
| 20260903134113 | 76 | 39 | 0.0 | 0.0 | 0.00 | 0.07 | 0.07 | 88 | 1010.2 |
| 20260903134108 | 76 | 41 | 0.0 | 0.0 | 0.00 | 0.07 | 0.07 | 88 | 1010.2 |
| 20260903134006 | 76 | 58 | 0.0 | 0.0 | 0.00 | 0.07 | 0.07 | 88 | 1010.2 |
| 20260903133705 | 75 | 52 | 0.0 | 0.0 | 0.00 | 0.07 | 0.07 | 89 | 1010.2 |
| 20260903133610 | 75 | 54 | 0.0 | 0.0 | 0.00 | 0.07 | 0.07 | 89 | 1010.3 |
| 20260903133605 | 75 | 54 | 0.0 | 0.0 | 0.00 | 0.07 | 0.07 | 89 | 1010.3 |